DL9MFL-6 Weather Reports


time (UTC)temp
F
wind
direction
speed
knots
gust
knots
rain 1hr
in
rain 24hr
in
rain mn
in
humidity
%
barometer
mb
20260506071911 54 119 0.0 1.7 0.00 0.01 0.00 81 1004.5
20260506071809 54 119 0.0 1.7 0.00 0.01 0.00 80 1004.5
20260506071709 54 119 0.0 1.7 0.00 0.01 0.00 81 1004.5
20260506071608 54 119 0.0 1.7 0.00 0.01 0.00 83 1004.5
20260506071510 54 119 0.0 0.9 0.00 0.01 0.00 82 1004.5
20260506071405 54 119 0.0 0.9 0.00 0.01 0.00 83 1004.5
20260506071303 54 119 0.0 0.9 0.00 0.01 0.00 83 1004.5
20260506071203 54 119 0.0 0.9 0.00 0.01 0.00 82 1004.5
20260506071104 54 119 0.0 0.9 0.00 0.01 0.00 82 1004.5
20260506071100 54 119 0.0 0.9 0.00 0.01 0.00 83 1004.5
20260506071050 54 119 0.0 0.9 0.00 0.01 0.00 81 1004.4
20260506071042 54 119 0.0 0.9 0.00 0.01 0.00 81 1004.4
20260506070801 54 119 0.0 0.9 0.00 0.01 0.00 83 1004.5
20260506070701 54 119 0.0 0.9 0.00 0.01 0.00 83 1004.5
20260506070602 54 119 0.0 0.9 0.00 0.01 0.00 83 1004.4
20260506070506 54 119 0.0 0.9 0.00 0.01 0.00 83 1004.5
20260506070401 54 119 0.0 0.9 0.00 0.01 0.00 83 1004.5
20260506070301 53 119 0.0 0.9 0.00 0.01 0.00 83 1004.4
20260506070201 53 119 0.0 0.9 0.00 0.01 0.00 82 1004.5
20260506062501 52 105 0.0 2.6 0.00 0.01 0.00 85 1004.5
20260506062400 52 105 0.0 2.6 0.00 0.01 0.00 85 1004.5
20260506062300 52 105 0.0 2.6 0.00 0.01 0.00 85 1004.5
20260506062200 51 105 0.0 2.6 0.00 0.01 0.00 86 1004.5
20260506062101 51 105 0.0 2.6 0.00 0.01 0.00 86 1004.5
20260506062001 51 105 0.9 2.6 0.00 0.01 0.00 86 1004.5
20260506061901 51 105 0.9 2.6 0.00 0.01 0.00 86 1004.5
20260506061801 51 105 0.9 2.6 0.00 0.01 0.00 86 1004.5
20260506061701 51 105 0.9 2.6 0.00 0.01 0.00 86 1004.5
20260506061600 51 115 0.9 2.6 0.00 0.01 0.00 87 1004.5
20260506061500 51 115 0.9 2.6 0.00 0.01 0.00 86 1004.5
20260506061404 51 115 0.9 2.6 0.00 0.01 0.00 86 1004.6
20260506061329 51 116 0.9 2.6 0.00 0.01 0.00 86 1004.6
20260506061257 51 117 0.9 2.6 0.00 0.01 0.00 87 1004.6
20260506061155 51 117 0.9 2.6 0.00 0.01 0.00 87 1004.6
20260506061055 51 117 0.9 2.6 0.00 0.01 0.00 87 1004.7
20260506060955 51 117 0.9 2.6 0.00 0.01 0.00 87 1004.7
20260506060859 50 118 0.9 3.5 0.00 0.01 0.00 88 1004.7
20260506060829 50 118 0.9 3.5 0.00 0.01 0.00 87 1004.7
20260506060751 50 117 0.9 3.5 0.00 0.01 0.00 87 1004.6
20260506060649 50 117 1.7 3.5 0.00 0.01 0.00 87 1004.7
20260506060549 50 117 1.7 3.5 0.00 0.01 0.00 88 1004.6
20260506060449 50 117 1.7 3.5 0.00 0.01 0.00 88 1004.7
20260506060329 50 118 1.7 3.5 0.00 0.01 0.00 88 1004.6
20260506060243 50 133 1.7 3.5 0.00 0.01 0.00 88 1004.6
20260506060143 50 134 1.7 3.5 0.00 0.01 0.00 88 1004.6
20260506051315 46 109 0.0 1.7 0.00 0.01 0.00 92 1004.7
20260506051229 46 109 0.0 1.7 0.00 0.01 0.00 92 1004.7
20260506051129 46 109 0.0 0.9 0.00 0.01 0.00 92 1004.7
20260506050928 46 109 0.0 0.9 0.00 0.01 0.00 92 1004.7
20260506050813 46 109 0.0 0.9 0.00 0.01 0.00 92 1004.7
20260506050729 46 109 0.0 0.9 0.00 0.01 0.00 92 1004.7
20260506050629 46 109 0.0 0.9 0.00 0.01 0.00 92 1004.7
20260506050529 46 109 0.0 0.9 0.00 0.01 0.00 91 1004.7
20260506050429 46 109 0.0 0.9 0.00 0.01 0.00 91 1004.7
20260506050311 46 109 0.0 0.9 0.00 0.01 0.00 91 1004.7
20260506050229 46 109 0.0 0.9 0.00 0.01 0.00 91 1004.9
20260506050129 46 109 0.0 0.9 0.00 0.01 0.00 91 1004.9
20260506045129 45 109 0.9 1.7 0.00 0.01 0.00 90 1005.0
20260506045029 45 109 0.9 1.7 0.00 0.01 0.00 90 1005.0
20260506044929 45 109 0.9 1.7 0.00 0.01 0.00 90 1005.0
20260506044812 45 109 0.9 1.7 0.00 0.01 0.00 90 1005.0
20260506044729 45 109 0.0 1.7 0.00 0.01 0.00 90 1005.0
20260506044629 45 108 0.0 1.7 0.00 0.01 0.00 90 1005.0
20260506044529 45 108 0.0 1.7 0.00 0.01 0.00 90 1005.0
20260506044429 45 108 0.0 1.7 0.00 0.01 0.00 90 1005.0
20260506044329 45 108 0.0 1.7 0.00 0.01 0.00 90 1005.0
20260506044310 46 108 0.0 1.7 0.00 0.01 0.00 90 1005.0
20260506044229 46 108 0.0 1.7 0.00 0.01 0.00 89 1004.9
20260506044129 45 108 0.0 1.7 0.00 0.01 0.00 89 1004.9
20260506044030 46 108 0.0 1.7 0.00 0.01 0.00 89 1004.9
20260506043811 46 108 0.0 1.7 0.00 0.01 0.00 89 1004.9
20260506043727 46 108 0.0 1.7 0.00 0.01 0.00 89 1004.9
20260506043627 46 108 0.0 1.7 0.00 0.01 0.00 88 1004.9
20260506043524 46 108 0.0 0.9 0.00 0.01 0.00 88 1005.0
20260506043423 46 108 0.0 0.9 0.00 0.01 0.00 88 1005.0
20260506043311 46 108 0.0 0.9 0.00 0.01 0.00 88 1005.0
20260506043221 46 108 0.0 0.9 0.00 0.01 0.00 88 1005.1
20260506043120 46 108 0.0 1.7 0.00 0.01 0.00 87 1005.0
20260506043018 46 108 0.0 1.7 0.00 0.01 0.00 87 1005.0
20260506042919 46 108 0.0 1.7 0.00 0.01 0.00 87 1005.1
20260506042809 46 108 0.9 1.7 0.00 0.01 0.00 87 1005.1
20260506042717 46 108 0.9 1.7 0.00 0.01 0.00 87 1005.1
20260506042615 46 108 0.9 1.7 0.00 0.01 0.00 87 1005.1
20260506042513 46 108 0.9 1.7 0.00 0.01 0.00 88 1005.1
20260506042413 46 108 0.9 1.7 0.00 0.01 0.00 88 1005.1
20260506042311 47 108 0.9 1.7 0.00 0.01 0.00 88 1005.2
20260506042306 46 108 0.9 1.7 0.00 0.01 0.00 88 1005.2
20260506042211 47 108 0.9 2.6 0.00 0.01 0.00 88 1005.2
20260506042109 47 108 0.9 2.6 0.00 0.01 0.00 88 1005.1
20260506042006 47 108 0.9 2.6 0.00 0.01 0.00 88 1005.2
20260506041904 47 108 0.9 2.6 0.00 0.01 0.00 88 1005.2
20260506041805 47 108 0.9 2.6 0.00 0.01 0.00 88 1005.1
20260506041703 47 108 0.0 2.6 0.00 0.01 0.00 88 1005.1
20260506041602 47 108 0.0 2.6 0.00 0.01 0.00 87 1005.1
20260506041503 47 108 0.0 2.6 0.00 0.01 0.00 87 1005.1
20260506041401 47 108 0.0 2.6 0.00 0.01 0.00 87 1005.2
20260506041301 47 108 0.0 2.6 0.00 0.01 0.00 88 1005.2
20260506041201 47 100 0.0 1.7 0.00 0.01 0.00 88 1005.1
20260506041101 47 100 0.0 1.7 0.00 0.01 0.00 88 1005.1
20260506041020 47 99 0.0 0.9 0.00 0.01 0.00 88 1005.1
20260506041016 47 99 0.0 0.9 0.00 0.01 0.00 89 1005.0
20260506041012 47 99 0.0 0.9 0.00 0.01 0.00 89 1005.0
20260506040701 47 98 0.0 0.9 0.00 0.01 0.00 89 1005.0
20260506040601 47 98 0.0 0.9 0.00 0.01 0.00 89 1005.0
20260506040501 47 98 0.0 0.9 0.00 0.01 0.00 89 1005.0
20260506040401 47 98 0.0 0.9 0.00 0.01 0.00 89 1005.1
20260506040301 47 98 0.0 0.9 0.00 0.01 0.00 89 1005.0
20260506040201 47 98 0.0 0.9 0.00 0.01 0.00 89 1005.1
20260506040101 47 98 0.0 0.9 0.00 0.01 0.00 89 1005.1
20260506040001 47 98 0.0 1.7 0.00 0.01 0.00 89 1005.1
20260506035901 47 98 0.0 1.7 0.00 0.01 0.00 89 1005.1
20260506035800 47 98 0.0 1.7 0.00 0.01 0.00 89 1005.2
20260506035701 47 98 0.0 1.7 0.00 0.01 0.00 89 1005.2
20260506035601 47 98 0.0 1.7 0.00 0.01 0.00 89 1005.1
20260506035501 47 98 0.0 1.7 0.00 0.01 0.00 89 1005.1
20260506035401 47 98 0.0 1.7 0.00 0.01 0.00 89 1005.1
20260506035300 47 98 0.0 1.7 0.00 0.01 0.00 89 1005.1
20260506035254 47 98 0.0 1.7 0.00 0.01 0.00 89 1005.1
20260506035200 47 98 0.0 1.7 0.00 0.01 0.00 89 1005.1
20260506035100 47 98 0.0 1.7 0.00 0.01 0.00 89 1005.1
20260506035006 47 99 0.0 0.9 0.00 0.01 0.00 89 1005.3
20260506035001 47 99 0.0 1.7 0.00 0.01 0.00 89 1005.2
20260506034901 47 99 0.0 1.7 0.00 0.01 0.00 89 1005.2
20260506034801 47 99 0.0 0.9 0.00 0.01 0.00 89 1005.2
20260506034701 47 99 0.0 0.9 0.00 0.01 0.00 89 1005.3
20260506034600 47 99 0.0 0.9 0.00 0.01 0.00 89 1005.3
20260506034500 47 99 0.0 0.0 0.00 0.01 0.00 89 1005.3
20260506034401 47 99 0.0 0.0 0.00 0.01 0.00 89 1005.3
20260506034301 47 99 0.0 0.0 0.00 0.01 0.00 89 1005.4
20260506034243 47 99 0.0 0.9 0.00 0.01 0.00 89 1005.4
20260506034201 47 99 0.0 0.9 0.00 0.01 0.00 89 1005.4
20260506034105 47 99 0.0 0.9 0.00 0.01 0.00 89 1005.4
20260506034006 47 99 0.0 0.9 0.00 0.01 0.00 89 1005.3
20260506034001 47 100 0.0 0.9 0.00 0.01 0.00 89 1005.4
20260506033957 47 99 0.0 0.9 0.00 0.01 0.00 89 1005.4
20260506033953 47 99 0.0 0.9 0.00 0.01 0.00 89 1005.3
20260506033701 47 99 0.0 0.9 0.00 0.01 0.00 89 1005.3
20260506033601 47 99 0.0 0.9 0.00 0.01 0.00 89 1005.3
20260506033501 47 99 0.0 0.9 0.00 0.01 0.00 89 1005.4
20260506033401 47 99 0.0 0.9 0.00 0.01 0.00 89 1005.4
20260506033301 47 99 0.0 0.9 0.00 0.01 0.00 89 1005.4
20260506033243 47 99 0.0 0.9 0.00 0.01 0.00 89 1005.4
20260506033201 47 99 0.0 0.9 0.00 0.01 0.00 89 1005.4
20260506033100 47 99 0.0 0.9 0.00 0.01 0.00 89 1005.4
20260506033001 47 99 0.0 0.9 0.00 0.01 0.00 89 1005.4
20260506032901 47 99 0.0 0.9 0.00 0.01 0.00 89 1005.4
20260506032801 47 99 0.0 0.9 0.00 0.01 0.00 89 1005.5
20260506032740 47 100 0.0 0.9 0.00 0.01 0.00 89 1005.4
20260506032701 47 99 0.0 0.9 0.00 0.01 0.00 89 1005.4
20260506032601 47 99 0.0 1.7 0.00 0.01 0.00 89 1005.4
20260506032501 47 99 0.0 1.7 0.00 0.01 0.00 89 1005.5
20260506032401 47 99 0.0 1.7 0.00 0.01 0.00 89 1005.5
20260506032254 47 99 0.0 1.7 0.00 0.01 0.00 89 1005.5
20260506032242 47 100 0.0 1.7 0.00 0.01 0.00 89 1005.5
20260506032055 47 99 0.0 1.7 0.00 0.01 0.00 89 1005.6
20260506031954 47 100 0.0 1.7 0.00 0.01 0.00 89 1005.6
20260506031854 47 99 0.0 1.7 0.00 0.01 0.00 89 1005.6
20260506031741 47 99 0.0 1.7 0.00 0.01 0.00 89 1005.6
20260506031651 47 99 0.0 1.7 0.00 0.01 0.00 89 1005.6
20260506031551 47 99 0.0 1.7 0.00 0.01 0.00 89 1005.6
20260506031450 47 99 0.0 1.7 0.00 0.01 0.00 89 1005.7
20260506031348 47 99 0.0 1.7 0.00 0.01 0.00 89 1005.7
20260506031241 47 99 0.0 1.7 0.00 0.01 0.00 89 1005.7
20260506031147 47 99 0.0 1.7 0.00 0.01 0.00 89 1005.7
20260506031047 47 99 0.0 1.7 0.00 0.01 0.00 89 1005.7
20260506030944 47 98 0.0 1.7 0.00 0.01 0.00 89 1005.8
20260506030842 47 98 0.0 1.7 0.00 0.01 0.00 89 1005.7
20260506030742 47 99 0.0 1.7 0.00 0.01 0.00 89 1005.7
20260506030640 47 98 0.0 1.7 0.00 0.01 0.00 89 1005.7
20260506030541 47 99 0.0 1.7 0.00 0.01 0.00 89 1005.7
20260506030501 47 99 0.0 0.9 0.00 0.01 0.00 89 1005.7
20260506030456 47 99 0.0 0.9 0.00 0.01 0.00 89 1005.7
20260506030452 47 98 0.0 0.9 0.00 0.01 0.00 89 1005.7
20260506030236 47 98 0.0 0.9 0.00 0.01 0.00 89 1005.7
20260506030136 47 99 0.0 0.9 0.00 0.01 0.00 89 1005.7
20260506030037 47 98 0.0 0.9 0.00 0.01 0.00 89 1005.7
20260506025935 47 98 0.0 0.9 0.00 0.01 0.00 89 1005.7
20260506025835 47 98 0.0 0.9 0.00 0.01 0.00 89 1005.6
20260506025735 47 98 0.0 0.9 0.00 0.01 0.00 89 1005.7
20260506025634 47 98 0.0 0.9 0.00 0.01 0.00 89 1005.7
20260506025532 47 98 0.0 0.9 0.00 0.01 0.00 89 1005.7
20260506025433 47 98 0.0 0.9 0.00 0.01 0.00 89 1005.7
20260506025333 47 98 0.0 0.9 0.00 0.01 0.00 89 1005.8
20260506025233 47 98 0.0 0.9 0.00 0.01 0.00 89 1005.8
20260506025132 47 98 0.0 0.9 0.00 0.01 0.00 89 1005.8
20260506025032 47 98 0.0 0.9 0.00 0.01 0.00 89 1005.8
20260506024931 47 98 0.0 1.7 0.00 0.01 0.00 89 1005.7
20260506024831 47 98 0.0 1.7 0.00 0.01 0.00 89 1005.7
20260506024730 47 98 0.0 1.7 0.00 0.01 0.00 89 1005.7
20260506024629 47 98 0.0 1.7 0.00 0.01 0.00 89 1005.8
20260506024529 47 99 0.0 1.7 0.00 0.01 0.00 89 1005.8
20260506024429 47 99 0.9 1.7 0.00 0.01 0.00 89 1005.8
20260506024329 47 98 0.9 1.7 0.00 0.01 0.00 89 1005.8
20260506024226 47 98 0.9 1.7 0.00 0.01 0.00 89 1005.8
20260506024126 47 99 0.9 1.7 0.00 0.01 0.00 89 1005.8
20260506024024 47 98 0.9 2.6 0.00 0.01 0.00 89 1005.8
20260506023925 47 98 0.9 2.6 0.00 0.01 0.00 88 1005.8
20260506023825 47 109 0.9 2.6 0.00 0.01 0.00 89 1005.8
20260506023735 47 111 0.9 2.6 0.00 0.01 0.00 89 1005.9
20260506023725 47 112 0.9 2.6 0.00 0.01 0.00 89 1005.9
20260506023625 47 122 0.9 2.6 0.00 0.01 0.00 89 1005.8
20260506023524 47 126 0.9 2.6 0.00 0.01 0.00 89 1005.9
20260506023422 47 113 0.9 2.6 0.00 0.01 0.00 89 1005.9
20260506023322 47 113 0.9 2.6 0.00 0.01 0.00 90 1005.9
20260506023222 47 112 0.9 2.6 0.00 0.01 0.00 89 1005.9
20260506023123 47 113 0.9 2.6 0.00 0.01 0.00 89 1006.0
20260506023021 47 111 0.9 2.6 0.00 0.01 0.00 89 1005.9
20260506022920 47 109 0.9 2.6 0.00 0.01 0.00 89 1006.0
20260506022820 47 109 0.9 1.7 0.00 0.01 0.00 90 1006.0
20260506022720 47 111 0.9 1.7 0.00 0.01 0.00 90 1005.9
20260506022620 47 111 0.9 1.7 0.00 0.01 0.00 90 1006.0
20260506022519 47 111 0.9 1.7 0.00 0.01 0.00 90 1006.0
20260506022419 47 111 0.9 1.7 0.00 0.01 0.00 90 1006.0
20260506022315 47 111 0.9 1.7 0.00 0.01 0.00 90 1006.0
20260506022215 47 111 0.0 1.7 0.00 0.01 0.00 90 1006.0
20260506022114 47 111 0.0 1.7 0.00 0.01 0.00 90 1005.9
20260506022014 47 111 0.0 1.7 0.00 0.01 0.00 90 1005.9
20260506021949 46 111 0.0 0.9 0.00 0.01 0.00 90 1005.7
20260506021944 47 111 0.0 1.7 0.00 0.01 0.00 90 1005.8
20260506021940 47 111 0.0 1.7 0.00 0.01 0.00 90 1005.8
20260506021715 47 111 0.0 0.9 0.00 0.01 0.00 90 1005.7
20260506021614 47 111 0.0 0.9 0.00 0.01 0.00 90 1005.7
20260506021514 47 111 0.0 0.9 0.00 0.01 0.00 90 1005.7
20260506021414 47 111 0.0 1.7 0.00 0.01 0.00 90 1005.7
20260506021314 47 111 0.0 1.7 0.00 0.01 0.00 90 1005.7
20260506021215 47 111 0.0 1.7 0.00 0.01 0.00 90 1005.7
20260506021115 47 111 0.0 1.7 0.00 0.01 0.00 90 1005.8
20260506021015 47 111 0.0 1.7 0.00 0.01 0.00 90 1005.8
20260506020953 47 109 0.0 1.7 0.00 0.01 0.00 90 1005.8
20260506020944 47 111 0.0 1.7 0.00 0.01 0.00 90 1005.8
20260506020940 47 109 0.0 1.7 0.00 0.01 0.00 90 1005.8
20260506020715 47 108 0.0 1.7 0.00 0.01 0.00 90 1005.8
20260506020615 47 108 0.0 1.7 0.00 0.01 0.00 90 1005.9
20260506020515 47 108 0.0 1.7 0.00 0.01 0.00 90 1005.9
20260506020410 47 108 0.0 1.7 0.00 0.01 0.00 90 1005.9
20260506020310 47 108 0.0 1.7 0.00 0.01 0.00 90 1005.9
20260506020211 47 108 0.0 1.7 0.00 0.01 0.00 90 1005.9
20260506020111 47 109 0.0 1.7 0.00 0.01 0.00 90 1006.0
20260506020011 47 109 0.0 1.7 0.00 0.01 0.00 89 1006.0
20260506015910 47 109 0.0 1.7 0.00 0.01 0.00 89 1006.0
20260506015810 47 107 0.9 2.6 0.00 0.01 0.00 89 1006.0
20260506015711 47 107 0.9 2.6 0.00 0.01 0.00 89 1006.0
20260506015610 47 107 0.9 2.6 0.00 0.01 0.00 89 1006.0
20260506015510 47 107 0.9 2.6 0.00 0.01 0.00 89 1006.0
20260506015411 47 107 0.9 2.6 0.00 0.01 0.00 89 1006.1
20260506015310 47 107 0.9 2.6 0.00 0.01 0.00 90 1006.1
20260506015210 47 107 0.9 2.6 0.00 0.01 0.00 90 1006.1
20260506015111 47 107 0.9 2.6 0.00 0.01 0.00 90 1006.0
20260506015011 47 107 0.9 2.6 0.00 0.01 0.00 90 1006.0
20260506014911 47 107 0.9 2.6 0.00 0.01 0.00 90 1006.0
20260506014811 47 109 0.9 2.6 0.00 0.01 0.00 90 1006.0
20260506014729 47 109 0.9 2.6 0.00 0.01 0.00 90 1006.0
20260506014710 47 111 0.9 2.6 0.00 0.01 0.00 90 1006.0
20260506014610 47 111 0.9 2.6 0.00 0.01 0.00 90 1006.0
20260506014506 47 111 0.9 2.6 0.00 0.01 0.00 90 1005.9
20260506014456 47 115 0.0 1.7 0.00 0.01 0.00 90 1006.0
20260506014445 47 114 0.9 1.7 0.00 0.01 0.00 90 1005.9
20260506014441 47 115 0.0 1.7 0.00 0.01 0.00 90 1005.9
20260506014207 47 115 0.0 1.7 0.00 0.01 0.00 90 1006.0
20260506014106 47 115 0.0 1.7 0.00 0.01 0.00 90 1005.9
20260506014006 47 115 0.0 1.7 0.00 0.01 0.00 90 1006.0
20260506013957 47 115 0.0 1.7 0.00 0.01 0.00 89 1005.9
20260506013946 47 115 0.0 1.7 0.00 0.01 0.00 90 1005.9
20260506013942 47 115 0.0 1.7 0.00 0.01 0.00 89 1005.9
20260506013707 47 115 0.0 1.7 0.00 0.01 0.00 89 1005.9
20260506013607 47 115 0.0 1.7 0.00 0.01 0.00 89 1005.9
20260506013507 47 115 0.0 1.7 0.00 0.01 0.00 89 1005.9
20260506013455 47 115 0.0 1.7 0.00 0.01 0.00 89 1005.8
20260506013445 47 115 0.0 1.7 0.00 0.01 0.00 89 1005.9
20260506013441 47 115 0.0 1.7 0.00 0.01 0.00 89 1005.9
20260506013206 47 115 0.0 1.7 0.00 0.01 0.00 89 1005.8
20260506013106 47 115 0.9 1.7 0.00 0.01 0.00 89 1005.9
20260506013006 47 115 0.9 1.7 0.00 0.01 0.00 89 1005.9
20260506012907 47 115 0.9 1.7 0.00 0.01 0.00 89 1006.0
20260506012807 47 115 0.9 1.7 0.00 0.01 0.00 89 1006.0
20260506012707 47 115 0.9 1.7 0.00 0.01 0.00 89 1006.0
20260506012602 47 115 0.9 1.7 0.00 0.01 0.00 89 1006.0
20260506012502 47 117 0.9 1.7 0.00 0.01 0.00 89 1006.0
20260506012453 47 117 0.9 1.7 0.00 0.01 0.00 89 1006.0
20260506012443 47 117 0.9 1.7 0.00 0.01 0.00 89 1006.1
20260506012439 47 117 0.9 1.7 0.00 0.01 0.00 89 1006.0
20260506012203 47 117 0.9 1.7 0.00 0.01 0.00 89 1006.0
20260506012103 47 117 0.9 1.7 0.00 0.01 0.00 89 1006.0
20260506012003 47 117 0.9 2.6 0.00 0.01 0.00 88 1006.1
20260506011902 47 117 0.9 3.5 0.00 0.01 0.00 88 1006.1
20260506011801 47 117 0.9 3.5 0.00 0.01 0.00 89 1006.2
20260506011702 47 117 0.9 3.5 0.00 0.01 0.00 89 1006.1
20260506011602 47 117 0.9 3.5 0.00 0.01 0.00 89 1006.2
20260506011500 47 117 0.9 3.5 0.00 0.01 0.00 89 1006.2
20260506011401 47 117 0.9 3.5 0.00 0.01 0.00 89 1006.2
20260506011300 47 117 0.9 3.5 0.00 0.01 0.00 89 1006.2
20260506011230 47 117 0.9 3.5 0.00 0.01 0.00 89 1006.2
20260506011200 47 119 0.9 3.5 0.00 0.01 0.00 89 1006.2
20260506011100 47 119 0.9 3.5 0.00 0.01 0.00 89 1006.2
20260506011001 48 135 0.9 3.5 0.00 0.01 0.00 89 1006.3
20260506010901 48 144 0.9 2.6 0.00 0.01 0.00 90 1006.3
20260506010801 48 145 0.9 2.6 0.00 0.01 0.00 90 1006.3
20260506010729 48 145 0.9 2.6 0.00 0.01 0.00 90 1006.3
20260506010700 48 146 0.9 1.7 0.00 0.01 0.00 89 1006.3
20260506010600 48 148 0.9 1.7 0.00 0.01 0.00 89 1006.3
20260506010501 48 148 0.9 1.7 0.00 0.01 0.00 89 1006.3
20260506010400 48 148 0.9 2.6 0.00 0.01 0.00 89 1006.3
20260506010301 48 148 0.9 2.6 0.00 0.01 0.00 89 1006.2
20260506010201 48 148 0.9 2.6 0.00 0.01 0.00 89 1006.3
20260506010001 48 148 0.9 2.6 0.00 0.01 0.00 89 1006.2
20260506005900 48 148 0.9 2.6 0.00 0.01 0.00 89 1006.2
20260506005800 48 148 0.9 2.6 0.00 0.01 0.00 89 1006.2
20260506005700 48 148 0.9 2.6 0.00 0.01 0.00 89 1006.1
20260506005600 48 149 0.9 2.6 0.00 0.01 0.00 89 1006.1
20260506005501 48 148 0.9 2.6 0.00 0.01 0.00 89 1006.2
20260506005401 48 157 0.0 1.7 0.00 0.01 0.00 89 1006.2
20260506005301 48 157 0.0 1.7 0.00 0.01 0.00 89 1006.2
20260506005201 48 157 0.0 1.7 0.00 0.01 0.00 89 1006.2
20260506005100 48 157 0.0 1.7 0.00 0.01 0.00 89 1006.2
20260506005000 48 157 0.0 0.9 0.00 0.01 0.00 89 1006.2
20260506004952 48 157 0.0 1.7 0.00 0.01 0.00 88 1006.2
20260506004944 48 157 0.0 0.9 0.00 0.01 0.00 89 1006.2
20260506004940 48 157 0.0 0.9 0.00 0.01 0.00 88 1006.2
20260506004718 48 162 0.0 1.7 0.00 0.01 0.00 89 1006.2
20260506004712 48 157 0.0 1.7 0.00 0.01 0.00 88 1006.2
20260506004708 48 157 0.0 1.7 0.00 0.01 0.00 89 1006.2
20260506004704 48 157 0.0 1.7 0.00 0.01 0.00 89 1006.1
20260506004443 48 157 0.0 1.7 0.00 0.01 0.00 89 1006.1
20260506004439 48 157 0.0 1.7 0.00 0.01 0.00 89 1006.1
20260506004220 49 163 0.0 1.7 0.00 0.01 0.00 89 1006.1
20260506004213 49 162 0.0 1.7 0.00 0.01 0.00 89 1006.2
20260506004209 48 163 0.0 1.7 0.00 0.01 0.00 89 1006.1
20260506004205 48 162 0.0 1.7 0.00 0.01 0.00 89 1006.1
20260506003946 49 162 0.0 1.7 0.00 0.01 0.00 89 1006.1
20260506003942 49 162 0.0 1.7 0.00 0.01 0.00 89 1006.1
20260506003653 49 163 0.0 1.7 0.00 0.01 0.00 89 1006.1
20260506003553 49 163 0.0 1.7 0.00 0.01 0.00 88 1006.1
20260506003451 49 178 0.0 1.7 0.00 0.01 0.00 88 1006.1
20260506003443 49 178 0.0 1.7 0.00 0.01 0.00 88 1006.1
20260506003439 49 178 0.0 1.7 0.00 0.01 0.00 88 1006.1
20260506003142 49 178 0.0 1.7 0.00 0.01 0.00 88 1006.2
20260506003042 49 178 0.0 1.7 0.00 0.01 0.00 88 1006.2
20260506002941 49 178 0.9 1.7 0.00 0.01 0.00 88 1006.2
20260506002841 49 178 0.9 1.7 0.00 0.01 0.00 88 1006.2
20260506002728 49 178 0.9 1.7 0.00 0.01 0.00 88 1006.2
20260506002636 49 178 0.9 1.7 0.00 0.01 0.00 87 1006.2
20260506002536 49 178 0.9 1.7 0.00 0.01 0.00 87 1006.2
20260506002436 49 178 0.9 1.7 0.00 0.01 0.00 87 1006.2
20260506002336 49 178 0.9 1.7 0.00 0.01 0.00 88 1006.2
20260506002230 49 179 0.9 1.7 0.00 0.01 0.00 87 1006.2
20260506002133 49 179 0.9 1.7 0.00 0.01 0.00 87 1006.2
20260506002032 49 179 0.0 1.7 0.00 0.01 0.00 87 1006.2
20260506001829 50 179 0.0 1.7 0.00 0.01 0.00 87 1006.3
20260506001729 50 179 0.0 1.7 0.00 0.01 0.00 87 1006.3
20260506001629 50 179 0.0 1.7 0.00 0.01 0.00 87 1006.3
20260506001456 50 179 0.0 0.9 0.00 0.01 0.00 87 1006.4
20260506001451 50 179 0.0 1.7 0.00 0.01 0.00 87 1006.3
20260506001442 50 179 0.0 1.7 0.00 0.01 0.00 87 1006.3
20260506001228 50 179 0.0 0.9 0.00 0.01 0.00 87 1006.4
20260506001128 50 178 0.0 0.0 0.00 0.01 0.00 87 1006.4
20260506001027 50 179 0.0 0.0 0.00 0.01 0.00 87 1006.4
20260506000927 50 179 0.0 0.0 0.00 0.01 0.00 87 1006.4
20260506000826 50 178 0.0 0.0 0.00 0.01 0.00 87 1006.4
20260506000724 50 178 0.0 0.0 0.00 0.01 0.00 87 1006.4
20260506000622 50 178 0.0 0.0 0.00 0.01 0.00 87 1006.5
20260506000518 50 178 0.0 0.0 0.00 0.01 0.00 87 1006.5
20260506000417 50 178 0.0 0.0 0.00 0.01 0.00 87 1006.5
20260506000317 50 178 0.0 0.0 0.00 0.01 0.00 87 1006.7
20260506000229 50 178 0.0 0.9 0.00 0.01 0.00 87 1006.7
20260506000219 50 178 0.0 1.7 0.00 0.01 0.00 87 1006.7
20260506000115 50 178 0.0 1.7 0.00 0.01 0.00 87 1006.7
20260506000016 50 178 0.0 1.7 0.00 0.01 0.00 87 1006.7
20260505235914 50 178 0.0 1.7 0.00 0.01 0.00 87 1006.5
20260505235814 50 178 0.0 1.7 0.00 0.01 0.00 87 1006.7
20260505235712 50 178 0.0 1.7 0.00 0.01 0.00 87 1006.5
20260505235610 50 178 0.0 1.7 0.00 0.01 0.00 87 1006.5
20260505235506 50 178 0.0 1.7 0.00 0.01 0.00 87 1006.5
20260505235405 51 178 0.0 1.7 0.00 0.01 0.00 87 1006.7
20260505235305 51 178 0.0 1.7 0.00 0.01 0.00 87 1006.5
20260505235204 51 178 0.0 1.7 0.00 0.01 0.00 87 1006.7
20260505235103 51 178 0.0 1.7 0.00 0.01 0.00 87 1006.7
20260505235002 51 178 0.0 0.9 0.00 0.01 0.00 87 1006.7
20260505234951 51 178 0.0 0.9 0.00 0.01 0.00 86 1006.7
20260505234901 51 178 0.0 0.9 0.00 0.01 0.00 87 1006.5
20260505234802 51 178 0.0 0.9 0.00 0.01 0.00 87 1006.5
20260505234702 51 178 0.0 0.9 0.00 0.01 0.00 86 1006.7
20260505234602 51 178 0.0 0.9 0.00 0.01 0.00 86 1006.5
20260505234501 51 178 0.0 0.9 0.00 0.01 0.00 86 1006.7
20260505234401 51 178 0.0 0.9 0.00 0.01 0.00 86 1006.7
20260505234301 51 178 0.0 0.9 0.00 0.01 0.00 86 1006.7
20260505234201 51 178 0.0 0.9 0.00 0.01 0.00 86 1006.7
20260505234101 51 178 0.0 0.9 0.00 0.01 0.00 86 1006.7
20260505234001 51 178 0.0 0.9 0.00 0.01 0.00 86 1006.7
20260505233901 51 178 0.0 0.9 0.00 0.01 0.00 86 1006.7
20260505233801 51 178 0.0 2.6 0.00 0.01 0.00 86 1006.7
20260505233701 51 178 0.0 2.6 0.00 0.01 0.00 86 1006.7
20260505233601 51 178 0.9 2.6 0.00 0.01 0.00 86 1006.7
20260505233500 51 178 0.9 2.6 0.00 0.01 0.00 86 1006.8
20260505233401 51 178 0.9 2.6 0.00 0.01 0.00 86 1006.7
20260505233300 51 178 0.9 2.6 0.00 0.01 0.00 86 1006.8
20260505233229 51 179 0.9 2.6 0.00 0.01 0.00 86 1006.7
20260505233159 51 179 0.9 2.6 0.00 0.01 0.00 86 1006.7
20260505233059 51 179 0.9 2.6 0.00 0.01 0.00 87 1006.8
20260505232958 51 179 0.9 2.6 0.00 0.01 0.00 87 1006.8
20260505232857 51 179 0.9 2.6 0.00 0.01 0.00 87 1006.8
20260505232729 51 179 0.9 2.6 0.00 0.01 0.00 87 1006.8
20260505232656 51 179 0.9 2.6 0.00 0.01 0.00 87 1006.8
20260505232554 51 179 0.9 2.6 0.00 0.01 0.00 87 1006.8
20260505232454 51 179 0.9 2.6 0.00 0.01 0.00 87 1006.7
20260505232354 51 179 0.9 2.6 0.00 0.01 0.00 87 1006.7
20260505232254 51 179 0.9 2.6 0.00 0.01 0.00 87 1006.8
20260505232228 51 179 0.9 2.6 0.00 0.01 0.00 87 1006.7
20260505232219 51 140 0.0 2.6 0.00 0.01 0.00 87 1006.8
20260505232215 51 179 0.9 2.6 0.00 0.01 0.00 87 1006.8
20260505232211 51 179 0.9 2.6 0.00 0.01 0.00 87 1006.8
20260505231954 51 179 0.9 2.6 0.00 0.01 0.00 87 1006.8
20260505231950 51 179 0.0 2.6 0.00 0.01 0.00 87 1006.7
20260505231941 51 146 0.0 2.6 0.00 0.01 0.00 87 1006.8
20260505231654 51 140 0.0 1.7 0.00 0.01 0.00 87 1006.8
20260505231553 51 140 0.0 1.7 0.00 0.01 0.00 87 1006.7
20260505231450 51 140 0.0 1.7 0.00 0.01 0.00 87 1006.7
20260505231351 51 140 0.0 1.7 0.00 0.01 0.00 87 1006.7
20260505231229 51 139 0.0 1.7 0.00 0.01 0.00 87 1006.8
20260505231146 51 139 0.0 1.7 0.00 0.01 0.00 87 1006.8
20260505231044 51 139 0.0 1.7 0.00 0.01 0.00 87 1006.7
20260505230953 51 139 0.0 1.7 0.00 0.01 0.00 87 1006.7
20260505230949 51 135 0.0 1.7 0.00 0.01 0.00 87 1006.7
20260505230941 51 135 0.0 1.7 0.00 0.01 0.00 87 1006.7
20260505230640 51 135 0.0 1.7 0.00 0.01 0.00 87 1006.8
20260505230540 51 135 0.0 1.7 0.00 0.01 0.00 87 1006.8
20260505230452 51 135 0.0 1.7 0.00 0.01 0.00 87 1006.7
20260505230448 51 135 0.0 1.7 0.00 0.01 0.00 87 1006.8
20260505230440 51 135 0.0 1.7 0.00 0.01 0.00 87 1006.7
20260505230138 51 135 0.0 1.7 0.00 0.01 0.00 87 1006.8
20260505230038 51 135 0.0 1.7 0.00 0.01 0.00 87 1006.8
20260505225936 51 135 0.0 1.7 0.00 0.01 0.00 87 1006.8
20260505225837 51 135 0.0 1.7 0.00 0.01 0.00 87 1006.8
20260505225729 51 135 0.0 0.9 0.00 0.01 0.00 87 1006.8
20260505225632 51 135 0.0 0.9 0.00 0.01 0.00 87 1006.7
20260505225532 51 135 0.0 1.7 0.00 0.01 0.00 87 1006.7
20260505225452 51 135 0.0 1.7 0.00 0.01 0.00 87 1006.8
20260505225448 51 135 0.0 1.7 0.00 0.01 0.00 87 1006.8
20260505225440 51 135 0.0 1.7 0.00 0.01 0.00 87 1006.8
20260505225129 52 135 0.0 1.7 0.00 0.01 0.00 87 1006.8
20260505225029 52 135 0.0 1.7 0.00 0.01 0.00 87 1006.8
20260505224929 52 135 0.0 1.7 0.00 0.01 0.00 87 1006.8
20260505224829 52 135 0.0 1.7 0.00 0.01 0.00 87 1006.9
20260505224729 52 135 0.0 1.7 0.00 0.01 0.00 87 1006.9
20260505224629 52 135 0.0 1.7 0.00 0.01 0.00 87 1006.9
20260505224530 52 135 0.0 1.7 0.00 0.01 0.00 87 1006.9
20260505224452 52 135 0.0 1.7 0.00 0.01 0.00 87 1006.9
20260505224448 52 135 0.0 1.7 0.00 0.01 0.00 87 1006.9
20260505224440 52 135 0.0 1.7 0.00 0.01 0.00 87 1007.0
20260505224129 52 135 0.0 1.7 0.00 0.01 0.00 87 1007.0
20260505224029 52 135 0.0 1.7 0.00 0.01 0.00 87 1007.0
20260505223929 52 135 0.0 1.7 0.00 0.01 0.00 87 1007.0
20260505223829 52 135 0.0 0.9 0.00 0.01 0.00 87 1007.0
20260505223726 52 135 0.0 0.9 0.00 0.01 0.00 87 1007.1
20260505223629 52 135 0.0 0.9 0.00 0.01 0.00 87 1007.1
20260505223528 52 135 0.0 0.9 0.00 0.01 0.00 87 1007.0
20260505223428 52 135 0.0 0.9 0.00 0.01 0.00 87 1007.0
20260505223329 52 135 0.0 0.9 0.00 0.01 0.00 86 1007.0
20260505223226 52 135 0.0 0.0 0.00 0.01 0.00 86 1007.0
20260505223129 52 135 0.0 1.7 0.00 0.01 0.00 86 1007.0
20260505223029 52 135 0.0 1.7 0.00 0.01 0.00 86 1007.1
20260505222929 52 135 0.0 1.7 0.00 0.01 0.00 86 1007.0
20260505222829 52 135 0.0 1.7 0.00 0.01 0.00 86 1007.1
20260505222726 52 135 0.9 1.7 0.00 0.01 0.00 86 1007.1
20260505222628 52 135 0.9 2.6 0.00 0.01 0.00 86 1007.0
20260505222528 52 135 0.9 2.6 0.00 0.01 0.00 86 1007.0
20260505222428 52 135 0.9 2.6 0.00 0.01 0.00 86 1007.1
20260505222328 52 135 0.9 2.6 0.00 0.01 0.00 86 1007.0
20260505222226 52 135 0.9 2.6 0.00 0.01 0.00 86 1007.0
20260505222128 52 135 0.9 2.6 0.00 0.01 0.00 86 1007.0
20260505222026 52 135 0.9 2.6 0.00 0.01 0.00 86 1007.0
20260505221926 52 135 0.9 2.6 0.00 0.01 0.00 86 1007.0
20260505221826 52 135 0.9 2.6 0.00 0.01 0.00 86 1006.9
20260505221726 52 135 0.9 2.6 0.00 0.01 0.00 86 1006.9
20260505221626 52 136 0.9 2.6 0.00 0.01 0.00 86 1006.9
20260505221526 52 136 0.9 2.6 0.00 0.01 0.00 86 1006.9
20260505221426 52 136 0.9 2.6 0.00 0.01 0.00 86 1006.9
20260505221326 52 136 0.9 2.6 0.00 0.01 0.00 86 1006.8
20260505221226 52 136 0.9 2.6 0.00 0.01 0.00 86 1006.9
20260505221124 52 140 0.9 2.6 0.00 0.01 0.00 86 1006.9
20260505221024 52 140 0.9 3.5 0.00 0.01 0.00 86 1006.8
20260505220924 52 140 0.9 3.5 0.00 0.01 0.00 86 1006.9
20260505220822 52 140 1.7 4.3 0.00 0.01 0.00 86 1006.8
20260505220719 52 140 1.7 4.3 0.00 0.01 0.00 86 1006.9
20260505220616 52 140 1.7 4.3 0.00 0.01 0.00 86 1006.8
20260505220516 52 140 1.7 4.3 0.00 0.01 0.00 86 1006.9
20260505220416 52 140 1.7 4.3 0.00 0.01 0.00 86 1006.8
20260505220316 52 140 1.7 4.3 0.00 0.01 0.00 86 1006.7
20260505220214 52 140 1.7 4.3 0.00 0.01 0.00 86 1006.7
20260505220109 52 140 1.7 4.3 0.00 0.01 0.00 86 1006.8
20260505220009 52 138 1.7 4.3 0.00 0.01 0.00 85 1006.8
20260505215809 52 123 1.7 4.3 0.00 0.01 0.01 85 1006.8
20260505215709 53 138 1.7 4.3 0.00 0.01 0.01 85 1006.8
20260505215701 53 108 2.6 7.0 0.00 0.01 0.01 85 1006.8
20260505215645 53 111 1.7 5.2 0.00 0.01 0.01 85 1006.7
20260505215640 53 111 1.7 6.1 0.00 0.01 0.01 85 1006.8
20260505215425 53 111 1.7 7.0 0.00 0.01 0.01 85 1006.8
20260505215421 53 110 2.6 7.0 0.00 0.01 0.01 85 1006.8
20260505215413 53 108 2.6 7.0 0.00 0.01 0.01 85 1006.8
20260505215102 53 108 2.6 7.0 0.00 0.01 0.01 85 1006.8
20260505215001 53 171 2.6 7.0 0.00 0.01 0.01 85 1006.8
20260505214924 53 194 2.6 7.0 0.00 0.01 0.01 85 1006.9
20260505214920 53 208 3.5 7.0 0.00 0.01 0.01 85 1006.9
20260505214912 53 208 2.6 7.0 0.00 0.01 0.01 85 1006.8
20260505214601 53 202 2.6 7.0 0.00 0.01 0.01 85 1006.9
20260505214501 53 206 2.6 7.0 0.00 0.01 0.01 85 1006.8
20260505214401 53 209 2.6 6.1 0.00 0.01 0.01 85 1006.9
20260505214301 53 199 1.7 6.1 0.00 0.01 0.01 85 1006.8
20260505214201 53 206 1.7 6.1 0.00 0.01 0.01 85 1006.8
20260505214101 53 196 1.7 6.1 0.00 0.01 0.01 85 1006.8
20260505214001 53 199 2.6 6.1 0.00 0.01 0.01 85 1006.8
20260505213901 53 198 2.6 7.0 0.00 0.01 0.01 85 1006.8
20260505213801 53 234 2.6 7.0 0.00 0.01 0.01 85 1006.8
20260505213701 53 234 2.6 7.0 0.00 0.01 0.01 85 1006.8
20260505213601 53 212 2.6 7.0 0.00 0.01 0.01 85 1006.8
20260505213501 53 211 2.6 7.0 0.00 0.01 0.01 85 1006.8
20260505213357 53 223 2.6 7.0 0.00 0.01 0.01 85 1006.8
20260505213257 53 227 2.6 7.0 0.00 0.01 0.01 85 1006.8
20260505213201 53 221 3.5 7.0 0.00 0.01 0.01 85 1006.8
20260505213157 53 221 3.5 7.0 0.00 0.01 0.01 85 1006.8
20260505213057 53 240 3.5 7.0 0.00 0.01 0.01 85 1006.8
20260505212957 53 271 2.6 7.0 0.00 0.01 0.01 85 1006.8
20260505212928 53 282 2.6 7.0 0.00 0.01 0.01 85 1006.8
20260505212920 53 269 2.6 7.0 0.00 0.01 0.01 85 1006.8
20260505212916 53 239 2.6 7.0 0.00 0.01 0.01 85 1006.8
20260505212651 53 282 2.6 7.0 0.00 0.01 0.01 85 1006.8
20260505212551 53 269 2.6 7.0 0.00 0.01 0.01 85 1006.8
20260505212451 53 238 2.6 5.2 0.00 0.01 0.01 85 1006.8
20260505212344 53 262 2.6 5.2 0.00 0.01 0.01 85 1006.8
20260505212245 53 275 2.6 6.1 0.00 0.01 0.01 85 1006.7
20260505212200 53 250 2.6 6.1 0.00 0.01 0.01 85 1006.7
20260505212145 53 250 2.6 6.1 0.00 0.01 0.01 85 1006.7
20260505212045 53 238 2.6 6.1 0.00 0.01 0.01 85 1006.7
20260505211945 53 254 2.6 6.1 0.00 0.01 0.01 85 1006.7
20260505211839 53 277 2.6 6.1 0.00 0.01 0.01 85 1006.5
20260505211743 53 279 2.6 7.0 0.00 0.01 0.01 84 1006.5
20260505211701 53 250 2.6 7.0 0.00 0.01 0.01 84 1006.5
20260505211640 53 250 2.6 7.0 0.00 0.01 0.01 85 1006.5
20260505211539 53 251 2.6 7.0 0.00 0.01 0.01 85 1006.5
20260505211438 53 313 3.5 7.0 0.00 0.01 0.01 84 1006.5
20260505211337 53 246 3.5 7.0 0.00 0.01 0.01 84 1006.5
20260505211241 53 281 3.5 7.0 0.00 0.01 0.01 84 1006.4
20260505211200 53 281 3.5 7.0 0.00 0.01 0.01 84 1006.4
20260505211137 53 263 3.5 7.0 0.00 0.01 0.01 84 1006.4
20260505211037 53 264 2.6 7.0 0.00 0.01 0.01 84 1006.4
20260505210937 53 268 2.6 7.0 0.00 0.01 0.01 84 1006.4
20260505210837 53 242 2.6 7.0 0.00 0.01 0.01 84 1006.5
20260505210739 54 255 2.6 7.0 0.00 0.01 0.01 84 1006.4
20260505210701 54 255 2.6 7.0 0.00 0.01 0.01 84 1006.4
20260505210633 54 255 2.6 7.0 0.00 0.01 0.01 84 1006.5
20260505210533 54 251 2.6 7.0 0.00 0.01 0.01 84 1006.5
20260505210433 54 242 2.6 7.0 0.00 0.01 0.01 84 1006.5
20260505210333 54 250 1.7 4.3 0.00 0.01 0.01 84 1006.4
20260505210238 54 304 2.6 4.3 0.00 0.01 0.01 84 1006.4
20260505210201 54 262 2.6 6.1 0.00 0.01 0.01 84 1006.4
20260505210132 54 262 2.6 6.1 0.00 0.01 0.01 84 1006.5
20260505210032 54 252 2.6 7.0 0.00 0.01 0.01 84 1006.7
20260505205932 54 248 2.6 7.0 0.00 0.01 0.01 83 1006.7
20260505205833 54 248 2.6 7.0 0.00 0.01 0.01 83 1006.7
20260505205735 54 218 2.6 7.0 0.00 0.01 0.01 83 1006.7
20260505205700 54 264 2.6 7.0 0.00 0.01 0.01 83 1006.7
20260505205631 54 264 3.5 7.8 0.00 0.01 0.01 83 1006.7
20260505205530 54 226 3.5 7.8 0.00 0.01 0.01 83 1006.7
20260505205431 55 225 3.5 8.7 0.00 0.01 0.01 83 1006.7
20260505205330 55 219 3.5 8.7 0.00 0.01 0.01 82 1006.7
20260505205233 55 259 3.5 8.7 0.00 0.01 0.01 82 1006.8
20260505205201 55 248 3.5 8.7 0.00 0.01 0.01 82 1006.8
20260505205129 55 232 3.5 8.7 0.00 0.01 0.01 82 1006.8
20260505205030 55 219 3.5 8.7 0.00 0.01 0.01 82 1006.7
20260505204929 55 203 3.5 8.7 0.00 0.01 0.01 82 1006.8
20260505204829 55 238 3.5 8.7 0.00 0.01 0.01 82 1006.8
20260505204731 55 215 3.5 8.7 0.00 0.01 0.01 82 1006.9
20260505204701 55 218 3.5 8.7 0.00 0.01 0.01 82 1006.9
20260505204629 55 240 3.5 8.7 0.00 0.01 0.01 81 1006.9
20260505204529 55 250 4.3 8.7 0.00 0.01 0.01 81 1006.9
20260505204429 55 248 4.3 8.7 0.00 0.01 0.01 81 1006.9
20260505204329 55 244 4.3 7.8 0.00 0.01 0.01 81 1006.9
20260505204229 55 243 4.3 7.8 0.00 0.01 0.01 81 1006.8
20260505204201 55 255 4.3 11.3 0.00 0.01 0.01 81 1006.8
20260505204129 55 286 5.2 14.8 0.00 0.01 0.01 80 1006.9
20260505204029 55 249 5.2 14.8 0.00 0.01 0.01 80 1007.0
20260505203929 56 242 5.2 14.8 0.00 0.01 0.01 80 1006.9
20260505203829 56 214 5.2 14.8 0.00 0.01 0.01 80 1006.9
20260505203729 56 237 5.2 14.8 0.00 0.01 0.01 80 1006.9
20260505203701 56 270 5.2 14.8 0.00 0.01 0.01 79 1006.9
20260505203629 56 245 5.2 14.8 0.00 0.01 0.01 79 1007.0
20260505203528 56 273 5.2 14.8 0.00 0.01 0.01 79 1007.0
20260505203428 56 248 6.1 14.8 0.00 0.01 0.01 79 1006.9
20260505203329 56 248 6.1 14.8 0.00 0.01 0.01 79 1006.9
20260505203229 56 227 5.2 14.8 0.00 0.01 0.01 79 1007.0
20260505203200 56 237 5.2 14.8 0.00 0.01 0.01 79 1007.0
20260505203129 56 298 5.2 10.4 0.00 0.01 0.01 79 1007.0
20260505203029 56 257 5.2 10.4 0.00 0.01 0.01 79 1006.9
20260505202929 56 227 5.2 10.4 0.00 0.01 0.01 79 1007.1
20260505202829 56 278 5.2 10.4 0.00 0.01 0.01 79 1007.0
20260505202728 56 250 5.2 10.4 0.00 0.01 0.01 79 1007.0
20260505202700 56 250 5.2 10.4 0.00 0.01 0.01 80 1007.0
20260505202629 56 265 5.2 10.4 0.00 0.01 0.01 80 1007.0
20260505202529 56 269 5.2 10.4 0.00 0.01 0.01 80 1007.0
20260505202432 56 277 5.2 10.4 0.00 0.01 0.01 80 1007.1
20260505202428 56 274 5.2 12.2 0.00 0.01 0.01 80 1007.1
20260505202416 56 249 5.2 12.2 0.00 0.01 0.01 80 1007.1
20260505202129 56 259 5.2 12.2 0.00 0.01 0.01 80 1007.1
20260505202029 56 259 5.2 12.2 0.00 0.01 0.01 80 1007.1
20260505201929 56 244 5.2 12.2 0.00 0.01 0.01 80 1007.2
20260505201830 56 269 5.2 12.2 0.00 0.01 0.01 81 1007.3
20260505201728 57 254 5.2 12.2 0.00 0.01 0.01 81 1007.2
20260505201701 57 250 5.2 12.2 0.00 0.01 0.01 81 1007.2
20260505201629 57 229 5.2 12.2 0.00 0.01 0.01 81 1007.2
20260505201529 57 259 5.2 12.2 0.00 0.01 0.01 81 1007.2
20260505201428 57 269 5.2 12.2 0.00 0.01 0.01 81 1007.2
20260505201328 57 265 5.2 12.2 0.00 0.01 0.01 81 1007.2
20260505201300 57 238 5.2 11.3 0.00 0.01 0.01 81 1007.3
20260505201201 57 239 5.2 11.3 0.00 0.01 0.01 81 1007.3
20260505201128 57 242 5.2 11.3 0.00 0.01 0.01 81 1007.2
20260505201028 57 266 6.1 11.3 0.00 0.01 0.01 81 1007.2
20260505200928 57 278 6.1 16.5 0.00 0.01 0.01 81 1007.2
20260505200830 57 249 7.0 16.5 0.00 0.01 0.01 81 1007.1
20260505200729 57 261 7.0 16.5 0.00 0.01 0.01 80 1007.2
20260505200700 57 272 7.0 16.5 0.00 0.01 0.01 80 1007.2
20260505200629 57 234 7.0 16.5 0.00 0.01 0.01 80 1007.2
20260505200529 57 271 7.0 16.5 0.00 0.01 0.01 81 1007.1
20260505200429 57 237 7.0 16.5 0.00 0.01 0.01 80 1007.1
20260505200329 57 294 7.0 16.5 0.00 0.01 0.01 80 1007.1
20260505200229 57 206 7.0 16.5 0.00 0.01 0.01 80 1007.0
20260505200201 57 244 7.0 16.5 0.00 0.01 0.01 80 1007.0
20260505200129 57 232 7.0 16.5 0.00 0.01 0.01 80 1007.0
20260505200028 57 227 6.1 16.5 0.00 0.01 0.01 79 1007.1
20260505195928 57 289 6.1 13.9 0.00 0.01 0.01 80 1007.1
20260505195828 57 220 6.1 13.9 0.00 0.01 0.01 81 1006.8
20260505195729 57 237 6.1 10.4 0.00 0.01 0.01 81 1007.0
20260505195700 57 250 6.1 10.4 0.00 0.01 0.01 81 1007.0
20260505195629 57 243 6.1 10.4 0.00 0.01 0.01 81 1006.9
20260505195529 57 248 6.1 10.4 0.00 0.01 0.01 81 1006.9
20260505195428 57 242 5.2 10.4 0.00 0.01 0.01 81 1006.9
20260505195328 57 262 6.1 10.4 0.00 0.01 0.01 81 1006.8
20260505195228 57 241 5.2 10.4 0.00 0.01 0.01 81 1006.8
20260505195201 57 267 5.2 10.4 0.00 0.01 0.01 81 1006.8
20260505195129 57 272 5.2 10.4 0.00 0.01 0.01 81 1006.8
20260505195029 57 232 5.2 10.4 0.00 0.01 0.01 81 1006.7
20260505194929 57 236 5.2 10.4 0.00 0.01 0.01 81 1006.7
20260505194829 57 229 5.2 10.4 0.00 0.01 0.01 81 1006.7
20260505194729 57 222 5.2 10.4 0.00 0.01 0.01 81 1006.5
20260505194701 57 209 5.2 11.3 0.00 0.01 0.01 81 1006.5
20260505194629 57 180 5.2 12.2 0.00 0.01 0.01 81 1006.5
20260505194529 57 232 5.2 12.2 0.00 0.01 0.01 80 1006.7
20260505194429 57 240 5.2 12.2 0.00 0.01 0.01 80 1006.5
20260505194329 57 226 5.2 12.2 0.00 0.01 0.01 80 1006.7
20260505194229 57 262 5.2 12.2 0.00 0.01 0.01 80 1006.5
20260505194205 57 250 5.2 12.2 0.00 0.01 0.01 80 1006.5
20260505194129 57 253 5.2 12.2 0.00 0.01 0.01 80 1006.4
20260505194029 57 267 5.2 12.2 0.00 0.01 0.01 80 1006.4
20260505193929 57 211 4.3 12.2 0.00 0.01 0.01 80 1006.4
20260505193828 57 261 4.3 12.2 0.00 0.01 0.01 81 1006.4
20260505193728 57 232 4.3 12.2 0.00 0.01 0.01 81 1006.4
20260505193703 57 205 4.3 12.2 0.00 0.01 0.01 81 1006.4
20260505193629 57 268 4.3 8.7 0.00 0.01 0.01 80 1006.4
20260505193529 56 264 4.3 8.7 0.00 0.01 0.01 81 1006.3
20260505193429 56 244 4.3 8.7 0.00 0.01 0.01 81 1006.3
20260505193329 56 270 4.3 8.7 0.00 0.01 0.01 81 1006.3
20260505193229 56 207 4.3 8.7 0.00 0.01 0.01 81 1006.3
20260505193204 56 221 4.3 8.7 0.00 0.01 0.01 81 1006.3
20260505193128 56 248 4.3 8.7 0.00 0.01 0.01 81 1006.3
20260505193028 56 232 4.3 8.7 0.00 0.01 0.01 82 1006.2
20260505192928 56 252 4.3 8.7 0.00 0.01 0.01 81 1006.2
20260505192924 56 217 3.5 8.7 0.00 0.01 0.01 82 1006.1
20260505192915 56 238 3.5 8.7 0.00 0.01 0.01 81 1006.2
20260505192911 56 245 3.5 8.7 0.00 0.01 0.01 82 1006.1
20260505192629 56 275 3.5 8.7 0.00 0.01 0.01 82 1006.2
20260505192529 56 263 2.6 7.8 0.00 0.01 0.01 82 1006.1
20260505192430 56 236 2.6 7.8 0.00 0.01 0.01 82 1006.1
20260505192330 56 244 2.6 7.0 0.00 0.01 0.01 82 1006.0
20260505192228 56 244 2.6 7.0 0.00 0.01 0.01 82 1006.0
20260505192201 56 269 2.6 7.0 0.00 0.01 0.01 82 1006.0
20260505192149 56 230 0.9 3.5 0.00 0.01 0.01 82 1005.9
20260505192142 56 246 1.7 6.1 0.00 0.01 0.01 82 1006.0
20260505192138 56 253 1.7 6.1 0.00 0.01 0.01 82 1006.0
20260505192134 56 247 1.7 4.3 0.00 0.01 0.01 82 1005.9
20260505191915 56 232 1.7 3.5 0.00 0.01 0.01 82 1005.9
20260505191911 56 231 0.9 3.5 0.00 0.01 0.01 83 1005.9
20260505191629 56 231 0.9 3.5 0.00 0.01 0.01 82 1005.9
20260505191529 56 252 0.9 3.5 0.00 0.01 0.01 82 1005.8
20260505191429 56 252 0.9 3.5 0.00 0.01 0.01 82 1005.8
20260505191329 56 254 0.9 2.6 0.00 0.01 0.01 82 1005.7
20260505191201 56 260 0.0 1.7 0.00 0.01 0.01 82 1005.7
20260505191129 56 260 0.0 1.7 0.00 0.01 0.01 82 1005.7
20260505191028 56 260 0.0 1.7 0.00 0.01 0.01 81 1005.6
20260505190931 56 260 0.0 0.9 0.00 0.01 0.01 81 1005.5
20260505190924 56 260 0.0 1.7 0.00 0.01 0.01 81 1005.7
20260505190917 56 260 0.0 0.9 0.00 0.01 0.01 81 1005.6
20260505190913 56 260 0.0 0.9 0.00 0.01 0.01 81 1005.6
20260505190623 56 260 0.0 0.9 0.00 0.01 0.01 81 1005.5
20260505190521 56 260 0.0 0.9 0.00 0.01 0.01 81 1005.5
20260505190417 56 260 0.0 0.9 0.00 0.01 0.01 81 1005.5
20260505190316 56 260 0.0 0.9 0.00 0.01 0.01 81 1005.5
20260505190201 56 260 0.0 0.9 0.00 0.01 0.01 81 1005.5
20260505190115 56 260 0.0 0.9 0.00 0.01 0.01 81 1005.5
20260505190014 56 260 0.0 0.9 0.00 0.01 0.01 81 1005.5
20260505185921 56 260 0.0 0.9 0.00 0.01 0.01 81 1005.5
20260505185917 56 260 0.0 2.6 0.00 0.02 0.01 81 1005.5
20260505185913 56 260 0.9 2.6 0.00 0.02 0.01 81 1005.5
20260505185609 57 260 0.9 2.6 0.00 0.02 0.01 81 1005.5
20260505185507 56 260 0.9 2.6 0.00 0.02 0.01 81 1005.5
20260505185403 56 260 0.9 2.6 0.00 0.02 0.01 81 1005.5
20260505185305 57 260 1.7 3.5 0.00 0.02 0.01 80 1005.4
20260505185201 57 260 1.7 5.2 0.00 0.02 0.01 81 1005.5
20260505185102 57 260 1.7 5.2 0.00 0.02 0.01 81 1005.5
20260505185003 57 260 1.7 5.2 0.00 0.03 0.01 81 1005.5
20260505184903 57 260 2.6 5.2 0.00 0.03 0.01 81 1005.5
20260505184803 57 260 2.6 5.2 0.00 0.04 0.01 80 1005.5
20260505184701 57 265 2.6 5.2 0.00 0.04 0.01 80 1005.5
20260505184603 57 265 2.6 5.2 0.00 0.05 0.01 80 1005.6
20260505184503 57 264 2.6 5.2 0.00 0.06 0.01 80 1005.6
20260505184403 57 264 2.6 5.2 0.00 0.06 0.01 80 1005.6
20260505184302 57 265 2.6 5.2 0.00 0.06 0.01 80 1005.6
20260505184201 57 264 2.6 6.1 0.00 0.06 0.01 79 1005.5
20260505184102 57 268 2.6 6.1 0.00 0.06 0.01 79 1005.5
20260505184002 57 268 2.6 6.1 0.00 0.06 0.01 79 1005.5
20260505183903 57 267 2.6 6.1 0.00 0.06 0.01 79 1005.5
20260505183803 57 261 2.6 6.1 0.00 0.06 0.01 79 1005.5
20260505183701 57 261 2.6 6.1 0.00 0.06 0.01 79 1005.5
20260505183603 57 249 2.6 6.1 0.00 0.06 0.01 79 1005.4
20260505183503 57 247 2.6 6.1 0.00 0.06 0.01 79 1005.5
20260505183403 57 248 2.6 6.1 0.00 0.06 0.01 79 1005.5
20260505183303 57 245 2.6 6.1 0.00 0.06 0.01 79 1005.5
20260505183205 57 256 2.6 5.2 0.00 0.06 0.01 79 1005.5
20260505183200 57 257 2.6 5.2 0.00 0.06 0.01 79 1005.5
20260505183103 57 246 2.6 5.2 0.00 0.06 0.01 79 1005.4
20260505183003 57 250 2.6 5.2 0.00 0.06 0.01 78 1005.4
20260505182903 57 250 2.6 5.2 0.00 0.06 0.01 78 1005.3
20260505182803 57 244 2.6 5.2 0.00 0.06 0.01 78 1005.3
20260505182700 57 259 2.6 5.2 0.00 0.06 0.01 78 1005.3
20260505182601 57 259 2.6 5.2 0.00 0.06 0.01 78 1005.3
20260505182500 57 259 2.6 5.2 0.00 0.06 0.01 78 1005.3
20260505182400 57 257 2.6 5.2 0.00 0.06 0.01 78 1005.3
20260505182300 57 257 2.6 5.2 0.00 0.06 0.01 78 1005.3
20260505182201 57 255 2.6 5.2 0.00 0.06 0.01 78 1005.3
20260505182100 57 257 2.6 5.2 0.00 0.06 0.01 78 1005.2
20260505182000 58 260 2.6 5.2 0.00 0.06 0.01 78 1005.2
20260505181900 58 261 2.6 5.2 0.00 0.06 0.01 78 1005.2
20260505181800 58 256 2.6 5.2 0.00 0.06 0.01 78 1005.2
20260505181700 58 257 1.7 3.5 0.00 0.06 0.01 79 1005.2
20260505181601 58 256 1.7 3.5 0.00 0.06 0.01 79 1005.2
20260505181501 58 257 1.7 3.5 0.00 0.06 0.01 79 1005.1
20260505181401 58 254 1.7 3.5 0.00 0.06 0.01 79 1005.2
20260505181301 58 252 1.7 3.5 0.00 0.06 0.01 79 1005.1
20260505181200 58 251 1.7 3.5 0.00 0.06 0.01 79 1005.2
20260505181100 58 252 1.7 3.5 0.00 0.06 0.01 79 1005.1
20260505181001 58 252 2.6 3.5 0.00 0.06 0.01 79 1005.1
20260505180901 58 252 2.6 3.5 0.00 0.06 0.01 79 1005.1
20260505180801 58 252 2.6 3.5 0.00 0.06 0.01 79 1005.1
20260505180700 58 251 2.6 3.5 0.00 0.06 0.01 79 1005.1
20260505180600 58 251 2.6 3.5 0.00 0.06 0.01 79 1005.1
20260505180500 58 255 1.7 3.5 0.00 0.06 0.01 79 1005.0
20260505180400 58 255 1.7 3.5 0.01 0.06 0.01 79 1005.0
20260505180302 58 254 1.7 3.5 0.01 0.06 0.01 79 1005.0
20260505180201 58 254 1.7 3.5 0.01 0.06 0.01 79 1005.0
20260505180100 58 252 1.7 3.5 0.01 0.06 0.01 79 1005.0
20260505180001 58 252 1.7 2.6 0.01 0.06 0.01 79 1004.9
20260505175901 58 252 1.7 2.6 0.01 0.06 0.01 79 1004.9
20260505175801 58 238 1.7 2.6 0.01 0.06 0.01 78 1004.9
20260505175700 58 236 1.7 2.6 0.01 0.06 0.01 79 1004.9
20260505175600 58 236 1.7 2.6 0.01 0.06 0.01 79 1004.9
20260505175500 58 236 1.7 2.6 0.01 0.06 0.01 79 1004.9
20260505175400 58 236 1.7 3.5 0.01 0.06 0.01 79 1004.7
20260505175300 58 236 1.7 3.5 0.01 0.06 0.01 79 1004.7
20260505175201 58 236 1.7 3.5 0.01 0.06 0.01 79 1004.7
20260505175105 58 236 1.7 3.5 0.01 0.06 0.01 79 1004.7
20260505175001 58 236 1.7 3.5 0.01 0.06 0.01 79 1004.7
20260505174901 58 236 1.7 3.5 0.01 0.06 0.01 79 1004.7
20260505174800 58 236 1.7 3.5 0.01 0.06 0.01 79 1004.7
20260505174700 58 236 1.7 3.5 0.01 0.06 0.01 79 1004.7
20260505174601 58 236 1.7 3.5 0.01 0.06 0.01 79 1004.7
20260505174502 59 236 1.7 3.5 0.01 0.06 0.01 79 1004.9
20260505174401 59 236 1.7 3.5 0.01 0.06 0.01 79 1004.7
20260505174300 59 236 1.7 3.5 0.01 0.06 0.01 79 1004.7
20260505174200 59 269 1.7 3.5 0.01 0.06 0.01 80 1004.7
20260505174100 59 233 1.7 4.3 0.01 0.06 0.01 79 1004.6
20260505174000 59 257 1.7 4.3 0.01 0.06 0.01 80 1004.6
20260505173920 59 259 1.7 4.3 0.01 0.06 0.01 80 1004.6
20260505173916 59 259 1.7 4.3 0.01 0.06 0.01 80 1004.5
20260505173912 59 259 1.7 4.3 0.01 0.06 0.01 79 1004.5
20260505173600 59 259 1.7 4.3 0.01 0.06 0.01 79 1004.5
20260505173501 59 259 1.7 4.3 0.01 0.06 0.01 79 1004.5
20260505173400 59 254 1.7 4.3 0.01 0.06 0.01 78 1004.5
20260505173300 59 252 1.7 4.3 0.01 0.06 0.01 78 1004.5
20260505173200 59 250 1.7 4.3 0.01 0.06 0.01 77 1004.5
20260505173100 59 271 1.7 3.5 0.01 0.06 0.01 77 1004.4
20260505173001 59 273 0.9 3.5 0.01 0.06 0.01 76 1004.4
20260505172901 59 290 0.9 3.5 0.01 0.06 0.01 76 1004.3
20260505172800 59 302 0.9 3.5 0.01 0.06 0.01 76 1004.3
20260505172700 59 333 0.9 3.5 0.01 0.06 0.01 76 1004.2
20260505172600 59 29 0.9 3.5 0.01 0.06 0.01 77 1004.2
20260505172500 59 34 0.9 3.5 0.01 0.06 0.01 77 1004.2
20260505172400 59 35 0.9 3.5 0.01 0.06 0.01 77 1004.1
20260505172300 59 35 0.9 3.5 0.01 0.06 0.01 78 1004.1
20260505172201 59 35 0.9 3.5 0.01 0.06 0.01 78 1004.1
20260505172101 59 35 1.7 7.0 0.01 0.06 0.01 77 1004.1
20260505172001 59 35 1.7 7.0 0.01 0.06 0.01 77 1004.1
20260505171901 59 35 1.7 7.0 0.01 0.06 0.01 76 1004.0
20260505171800 59 35 1.7 7.0 0.01 0.06 0.01 77 1004.0
20260505171700 59 63 1.7 7.0 0.01 0.06 0.01 77 1004.0
20260505171600 59 55 2.6 7.0 0.01 0.06 0.01 78 1004.0
20260505171501 59 55 2.6 7.0 0.01 0.06 0.01 78 1004.0
20260505171401 59 37 2.6 8.7 0.01 0.06 0.01 77 1004.0
20260505171301 59 342 3.5 8.7 0.01 0.06 0.01 76 1004.0
20260505171202 59 15 3.5 8.7 0.01 0.06 0.01 76 1004.0
20260505171158 59 15 3.5 8.7 0.01 0.06 0.01 76 1004.0
20260505171058 59 43 3.5 8.7 0.01 0.06 0.01 75 1004.0
20260505170959 59 336 3.5 8.7 0.01 0.06 0.01 75 1004.1
20260505170859 59 15 3.5 8.7 0.01 0.06 0.01 76 1004.0
20260505170757 60 18 3.5 8.7 0.01 0.06 0.01 75 1004.0
20260505170700 60 21 3.5 8.7 0.01 0.06 0.01 76 1004.0
20260505170657 60 33 3.5 8.7 0.01 0.06 0.01 76 1004.0
20260505170556 60 40 3.5 8.7 0.01 0.06 0.01 76 1004.2
20260505170457 60 5 2.6 8.7 0.01 0.06 0.00 75 1004.3
20260505170356 60 342 2.6 7.0 0.00 0.06 0.00 76 1004.3
20260505170257 60 348 2.6 5.2 0.00 0.06 0.00 75 1004.4
20260505170200 60 343 2.6 5.2 0.00 0.06 0.00 74 1004.5
20260505170156 60 344 2.6 5.2 0.00 0.06 0.00 74 1004.5
20260505170055 60 333 1.7 5.2 0.00 0.06 0.00 73 1004.6
20260505165951 60 319 1.7 5.2 0.00 0.06 0.00 73 1004.6
20260505165850 60 323 1.7 4.3 0.00 0.06 0.00 72 1004.7
20260505165750 60 314 1.7 4.3 0.00 0.06 0.00 72 1004.9
20260505165701 60 313 1.7 4.3 0.00 0.06 0.00 72 1004.9
20260505165650 60 313 1.7 4.3 0.00 0.06 0.00 72 1004.9
20260505165551 60 303 2.6 4.3 0.00 0.06 0.00 72 1004.9
20260505165446 60 302 2.6 4.3 0.00 0.06 0.00 72 1004.9
20260505165345 60 302 2.6 4.3 0.00 0.06 0.00 72 1004.9
20260505165245 61 292 2.6 4.3 0.00 0.06 0.00 71 1004.9
20260505165201 61 293 2.6 5.2 0.00 0.06 0.00 71 1004.9
20260505165145 61 294 2.6 5.2 0.00 0.06 0.00 70 1005.0
20260505165043 61 299 2.6 5.2 0.00 0.06 0.00 71 1005.0
20260505164941 61 300 2.6 5.2 0.00 0.06 0.00 71 1005.0
20260505164839 61 304 2.6 5.2 0.00 0.06 0.00 71 1005.0
20260505164739 61 290 2.6 5.2 0.00 0.06 0.00 71 1005.0
20260505164701 61 290 2.6 5.2 0.00 0.06 0.00 71 1005.0
20260505164638 61 311 2.6 5.2 0.00 0.06 0.00 71 1005.0
20260505164537 61 292 2.6 5.2 0.00 0.06 0.00 71 1005.0
20260505164432 61 304 2.6 6.1 0.00 0.06 0.00 71 1005.0
20260505164332 61 298 2.6 6.1 0.00 0.06 0.00 70 1005.0
20260505164232 61 281 2.6 6.1 0.00 0.06 0.00 69 1005.0
20260505164201 61 302 2.6 6.1 0.00 0.06 0.00 68 1005.0
20260505164133 61 291 2.6 6.1 0.00 0.06 0.00 68 1005.1
20260505164035 61 295 2.6 6.1 0.00 0.06 0.00 68 1005.1
20260505163932 61 277 2.6 6.1 0.00 0.06 0.00 67 1005.1
20260505163832 61 299 2.6 6.1 0.00 0.06 0.00 67 1005.1
20260505163733 61 265 2.6 6.1 0.00 0.06 0.00 66 1005.0
20260505163700 61 290 2.6 6.1 0.00 0.06 0.00 66 1005.0
20260505163634 61 290 2.6 6.1 0.00 0.06 0.00 67 1005.0
20260505163530 61 288 2.6 6.1 0.00 0.06 0.00 66 1005.0
20260505163430 61 278 2.6 4.3 0.00 0.06 0.00 67 1005.0
20260505163330 61 297 2.6 5.2 0.00 0.06 0.00 67 1005.0
20260505163230 61 304 2.6 5.2 0.00 0.06 0.00 67 1005.0
20260505163201 61 294 2.6 5.2 0.00 0.06 0.00 67 1005.0
20260505163130 61 298 2.6 5.2 0.00 0.06 0.00 67 1005.0
20260505163030 61 295 2.6 5.2 0.00 0.06 0.00 66 1005.0
20260505162929 61 289 2.6 5.2 0.00 0.06 0.00 66 1004.9
20260505162829 61 292 2.6 5.2 0.00 0.06 0.00 66 1005.0
20260505162729 61 281 2.6 5.2 0.00 0.06 0.00 66 1004.9
20260505162655 61 292 2.6 5.2 0.00 0.06 0.00 65 1005.0
20260505162629 61 319 2.6 5.2 0.00 0.06 0.00 65 1005.0
20260505162529 61 303 2.6 5.2 0.00 0.06 0.00 66 1004.9
20260505162429 61 336 2.6 6.1 0.00 0.06 0.00 65 1004.9
20260505162329 61 304 2.6 7.0 0.00 0.06 0.00 66 1004.9
20260505162229 61 306 2.6 7.0 0.00 0.06 0.00 66 1004.9
20260505162150 62 298 2.6 7.0 0.00 0.06 0.00 66 1005.0
20260505162130 62 292 2.6 7.0 0.00 0.06 0.00 66 1005.0
20260505162028 62 294 2.6 7.0 0.00 0.06 0.00 65 1005.0
20260505161928 62 298 2.6 7.0 0.00 0.06 0.00 65 1005.0
20260505161826 62 288 2.6 7.0 0.00 0.06 0.00 66 1005.0
20260505161723 62 297 2.6 7.0 0.00 0.06 0.00 67 1005.0
20260505161644 62 287 2.6 7.0 0.00 0.06 0.00 67 1005.1
20260505161622 62 292 2.6 7.0 0.00 0.06 0.00 67 1005.1
20260505161522 62 296 3.5 7.0 0.00 0.06 0.00 67 1005.1
20260505161421 62 317 3.5 7.0 0.00 0.06 0.00 68 1005.1
20260505161320 62 300 3.5 6.1 0.00 0.06 0.00 68 1005.1
20260505161217 62 304 3.5 7.0 0.00 0.06 0.00 68 1005.1
20260505161138 62 295 3.5 7.0 0.00 0.06 0.00 67 1005.1
20260505161114 62 322 3.5 7.8 0.00 0.06 0.00 67 1005.1
20260505161014 62 291 3.5 7.8 0.00 0.06 0.00 67 1005.1
20260505160914 62 267 3.5 7.8 0.00 0.06 0.00 68 1005.1
20260505160854 62 308 3.5 7.8 0.00 0.06 0.00 68 1005.1
20260505160847 62 299 3.5 7.8 0.00 0.06 0.00 68 1005.1
20260505160843 62 273 3.5 7.8 0.00 0.06 0.00 68 1005.1
20260505160611 62 294 3.5 7.8 0.00 0.06 0.00 68 1005.1
20260505160510 62 268 3.5 7.8 0.00 0.06 0.00 68 1005.2
20260505160410 62 304 3.5 7.8 0.00 0.06 0.00 68 1005.1
20260505160307 62 296 3.5 7.8 0.00 0.06 0.00 68 1005.1
20260505160204 62 312 3.5 7.8 0.00 0.06 0.00 68 1005.1
20260505160130 62 288 3.5 7.8 0.00 0.06 0.00 68 1005.1
20260505153352 63 288 4.3 8.7 0.00 0.06 0.00 66 1004.9
20260505153250 63 291 4.3 8.7 0.00 0.06 0.00 66 1004.7
20260505153150 63 302 5.2 8.7 0.00 0.06 0.00 66 1004.9
20260505153130 63 285 5.2 8.7 0.00 0.06 0.00 66 1004.9
20260505153050 63 294 5.2 8.7 0.00 0.06 0.00 66 1004.9
20260505152944 63 312 5.2 9.6 0.00 0.06 0.00 65 1004.7
20260505152845 63 266 5.2 9.6 0.00 0.06 0.00 65 1004.9
20260505152744 63 321 5.2 9.6 0.00 0.06 0.00 65 1004.9
20260505152644 63 314 5.2 9.6 0.00 0.06 0.00 65 1004.7
20260505152630 63 319 5.2 9.6 0.00 0.06 0.00 65 1004.7
20260505152543 63 283 5.2 9.6 0.00 0.06 0.00 65 1004.7
20260505152438 63 309 5.2 9.6 0.00 0.06 0.00 64 1004.7
20260505152354 63 323 4.3 9.6 0.00 0.06 0.00 64 1005.0
20260505152350 63 294 5.2 9.6 0.00 0.06 0.00 64 1004.7
20260505152346 63 292 4.3 9.6 0.00 0.06 0.00 64 1004.9
20260505152342 63 296 4.3 9.6 0.00 0.06 0.00 64 1005.0
20260505152123 63 292 3.5 7.8 0.00 0.06 0.00 64 1004.9
20260505152111 63 301 4.3 8.7 0.00 0.06 0.00 64 1004.9
20260505151849 63 295 4.3 7.8 0.00 0.06 0.00 64 1004.9
20260505151845 63 344 3.5 7.8 0.00 0.06 0.00 65 1004.9
20260505151841 63 270 3.5 7.8 0.00 0.06 0.00 64 1004.9
20260505151535 63 290 3.5 7.8 0.00 0.06 0.00 65 1004.9
20260505151434 63 298 3.5 7.8 0.00 0.06 0.00 65 1004.9
20260505151334 63 296 3.5 7.8 0.00 0.06 0.00 65 1004.9
20260505151234 63 292 3.5 7.8 0.00 0.06 0.00 64 1004.9
20260505151134 63 314 3.5 7.8 0.00 0.06 0.00 64 1004.9
20260505151130 63 307 3.5 7.8 0.00 0.06 0.00 64 1004.9
20260505151034 63 319 3.5 7.8 0.00 0.06 0.00 64 1004.9
20260505150934 63 326 3.5 7.8 0.00 0.06 0.00 64 1004.9
20260505150832 62 321 3.5 7.8 0.00 0.06 0.00 65 1004.9
20260505150732 62 313 3.5 7.8 0.00 0.06 0.00 64 1004.9
20260505150635 62 312 3.5 7.8 0.00 0.06 0.00 64 1004.9
20260505150630 62 303 3.5 7.8 0.00 0.06 0.00 64 1004.9
20260505150530 62 296 3.5 7.8 0.00 0.06 0.00 65 1004.9
20260505150432 62 292 2.6 7.8 0.00 0.06 0.00 65 1004.9
20260505150330 62 320 2.6 7.0 0.00 0.06 0.00 65 1004.9
20260505150230 62 298 2.6 7.0 0.00 0.06 0.00 65 1004.9
20260505150129 62 326 2.6 5.2 0.00 0.06 0.00 65 1004.9
20260505140629 63 309 3.5 8.7 0.00 0.06 0.00 61 1004.9
20260505140549 63 303 4.3 8.7 0.00 0.06 0.00 61 1005.0
20260505140444 63 298 4.3 8.7 0.00 0.06 0.00 61 1004.9
20260505140343 63 290 4.3 8.7 0.00 0.06 0.00 61 1004.9
20260505140244 63 331 4.3 8.7 0.00 0.06 0.00 61 1004.9
20260505140144 63 286 4.3 8.7 0.00 0.06 0.00 61 1004.9
20260505140129 63 304 4.3 8.7 0.00 0.06 0.00 61 1004.9
20260505130302 65 288 5.2 10.4 0.00 0.06 0.00 67 1005.1
20260505130201 65 317 6.1 11.3 0.00 0.06 0.00 66 1005.1
20260505130114 65 318 6.1 11.3 0.00 0.06 0.00 65 1005.1
20260505125001 65 283 6.1 11.3 0.00 0.06 0.00 62 1005.1
20260505124901 65 309 6.1 11.3 0.00 0.06 0.00 62 1005.1
20260505124800 65 240 6.1 11.3 0.00 0.06 0.00 62 1005.1
20260505124700 65 310 6.1 10.4 0.00 0.06 0.00 63 1005.0
20260505124607 65 342 6.1 10.4 0.00 0.06 0.00 62 1005.1
20260505124600 65 289 6.1 10.4 0.00 0.06 0.00 62 1005.1
20260505124500 65 294 7.0 10.4 0.00 0.06 0.00 62 1005.0
20260505124401 65 279 7.0 10.4 0.00 0.06 0.00 61 1005.1
20260505124338 65 257 6.1 10.4 0.00 0.06 0.00 58 1005.1
20260505124322 65 270 6.1 10.4 0.00 0.06 0.00 60 1005.2
20260505124318 65 268 6.1 10.4 0.00 0.06 0.00 59 1005.1
20260505124100 65 264 6.1 10.4 0.00 0.06 0.00 58 1005.1
20260505124000 65 277 5.2 10.4 0.00 0.06 0.00 58 1005.1
20260505123900 65 278 5.2 10.4 0.00 0.06 0.00 57 1005.1
20260505123800 66 289 5.2 10.4 0.00 0.06 0.00 57 1005.1
20260505123700 66 280 5.2 10.4 0.00 0.06 0.00 57 1005.2
20260505123606 66 273 5.2 10.4 0.00 0.06 0.00 58 1005.1
20260505123600 66 269 5.2 10.4 0.00 0.06 0.00 58 1005.1
20260505123501 66 253 4.3 9.6 0.00 0.06 0.00 59 1005.1
20260505123402 66 319 4.3 9.6 0.00 0.06 0.00 59 1005.1
20260505123301 66 277 4.3 9.6 0.00 0.06 0.00 58 1005.1
20260505123201 66 254 5.2 9.6 0.00 0.06 0.00 60 1005.1
20260505123102 66 298 5.2 9.6 0.00 0.06 0.00 59 1005.1
20260505123001 66 263 5.2 9.6 0.00 0.06 0.00 59 1005.1
20260505122901 66 261 5.2 9.6 0.00 0.06 0.00 58 1005.2
20260505122801 66 266 5.2 9.6 0.00 0.06 0.00 58 1005.2
20260505122701 66 265 4.3 8.7 0.00 0.06 0.00 60 1005.3
20260505122605 66 242 4.3 8.7 0.00 0.06 0.00 59 1005.3
20260505122601 66 227 4.3 8.7 0.00 0.06 0.00 59 1005.3
20260505122501 66 238 4.3 8.7 0.00 0.06 0.00 59 1005.3
20260505122401 66 269 4.3 8.7 0.00 0.06 0.00 60 1005.3
20260505122300 67 220 4.3 8.7 0.00 0.06 0.00 59 1005.3
20260505122200 67 238 4.3 8.7 0.00 0.06 0.00 57 1005.4
20260505122101 67 240 3.5 8.7 0.00 0.06 0.00 56 1005.3
20260505122001 67 231 3.5 8.7 0.00 0.06 0.00 54 1005.4
20260505121901 67 279 3.5 8.7 0.00 0.06 0.00 53 1005.3
20260505121801 67 268 3.5 8.7 0.00 0.06 0.00 54 1005.4
20260505121701 67 263 3.5 8.7 0.00 0.06 0.00 56 1005.5
20260505121604 67 236 3.5 8.7 0.00 0.06 0.00 58 1005.5
20260505121556 67 229 3.5 8.7 0.00 0.06 0.00 58 1005.5
20260505121456 67 241 3.5 8.7 0.00 0.06 0.00 59 1005.4
20260505121355 67 288 3.5 8.7 0.00 0.06 0.00 59 1005.4
20260505121256 67 219 3.5 8.7 0.00 0.06 0.00 59 1005.4
20260505121156 67 257 3.5 8.7 0.00 0.06 0.00 58 1005.3
20260505121104 67 252 3.5 8.7 0.00 0.06 0.00 58 1005.3
20260505121055 67 261 3.5 8.7 0.00 0.06 0.00 58 1005.3
20260505120954 67 226 3.5 8.7 0.00 0.06 0.00 57 1005.3
20260505120943 67 269 3.5 7.0 0.00 0.06 0.00 56 1005.3
20260505120937 67 250 3.5 7.0 0.00 0.06 0.00 57 1005.3
20260505120933 67 257 3.5 8.7 0.00 0.06 0.00 57 1005.4
20260505120925 67 263 3.5 6.1 0.00 0.06 0.00 56 1005.3
20260505120920 67 268 3.5 7.0 0.00 0.06 0.00 56 1005.3
20260505120705 67 269 3.5 7.0 0.00 0.06 0.00 56 1005.4
20260505120353 67 256 3.5 7.0 0.00 0.06 0.00 56 1005.3
20260505120251 67 275 4.3 7.0 0.00 0.06 0.00 56 1005.3
20260505120151 67 303 4.3 7.8 0.00 0.06 0.00 55 1005.3
20260505120052 67 261 4.3 7.8 0.00 0.06 0.00 56 1005.3
20260505115952 67 309 4.3 7.8 0.00 0.06 0.00 56 1005.3
20260505115852 67 249 4.3 7.8 0.00 0.06 0.00 55 1005.3
20260505115752 68 260 4.3 7.8 0.00 0.06 0.00 55 1005.3
20260505115652 68 234 3.5 7.8 0.00 0.06 0.00 56 1005.3
20260505115601 68 243 3.5 7.8 0.00 0.06 0.00 56 1005.3
20260505115552 68 246 3.5 7.8 0.00 0.06 0.00 56 1005.2
20260505115451 68 266 3.5 7.8 0.00 0.06 0.00 55 1005.3
20260505115347 68 302 3.5 7.8 0.00 0.06 0.00 56 1005.3
20260505115245 68 259 3.5 7.8 0.00 0.06 0.00 58 1005.2
20260505115146 68 256 3.5 7.8 0.00 0.06 0.00 57 1005.3
20260505115101 68 269 3.5 7.8 0.00 0.06 0.00 56 1005.3
20260505115046 68 259 3.5 7.8 0.00 0.06 0.00 56 1005.2
20260505114946 68 271 3.5 7.8 0.00 0.06 0.00 57 1005.3
20260505114842 68 295 4.3 7.8 0.00 0.06 0.00 57 1005.3
20260505114742 68 272 4.3 7.8 0.00 0.06 0.00 56 1005.2
20260505114642 68 236 4.3 7.8 0.00 0.06 0.00 57 1005.2
20260505114601 68 230 4.3 7.8 0.00 0.06 0.00 56 1005.2
20260505114539 68 277 4.3 7.8 0.00 0.06 0.00 56 1005.3
20260505114437 68 250 4.3 7.8 0.00 0.06 0.00 55 1005.2
20260505114333 68 267 4.3 7.0 0.00 0.06 0.00 55 1005.2
20260505114232 68 243 4.3 7.0 0.00 0.06 0.00 56 1005.2
20260505114132 68 276 4.3 7.8 0.00 0.06 0.00 56 1005.2
20260505114101 68 272 4.3 7.8 0.00 0.06 0.00 56 1005.2
20260505114031 68 229 4.3 7.8 0.00 0.06 0.00 56 1005.2
20260505113931 68 247 4.3 7.8 0.00 0.06 0.00 56 1005.2
20260505113830 68 262 4.3 7.8 0.00 0.06 0.00 56 1005.2
20260505113729 68 270 4.3 7.8 0.00 0.06 0.00 54 1005.1
20260505113629 68 301 4.3 7.8 0.00 0.06 0.00 55 1005.2
20260505113601 68 306 4.3 7.8 0.00 0.06 0.00 55 1005.2
20260505113530 68 267 4.3 7.8 0.00 0.06 0.00 54 1005.2
20260505113430 68 305 4.3 7.8 0.00 0.06 0.00 54 1005.1
20260505113329 68 319 4.3 7.8 0.00 0.06 0.00 53 1005.1
20260505113229 68 262 3.5 7.8 0.00 0.06 0.00 53 1005.1
20260505113129 68 246 3.5 7.8 0.00 0.06 0.00 53 1005.1
20260505113101 68 290 3.5 7.8 0.00 0.06 0.00 53 1005.1
20260505113029 68 263 3.5 7.8 0.00 0.06 0.00 54 1005.1
20260505112929 68 293 3.5 7.8 0.00 0.06 0.00 54 1005.0
20260505112829 68 271 3.5 7.0 0.00 0.06 0.00 54 1005.1
20260505112729 68 261 3.5 7.0 0.00 0.06 0.00 55 1005.1
20260505112628 68 283 2.6 7.0 0.00 0.06 0.00 55 1005.1
20260505112601 68 266 2.6 7.0 0.00 0.06 0.00 56 1005.1
20260505112527 68 279 2.6 6.1 0.00 0.06 0.00 55 1005.1
20260505112427 69 298 2.6 6.1 0.00 0.06 0.00 55 1005.1
20260505112327 69 333 2.6 6.1 0.00 0.06 0.00 54 1005.1
20260505112227 69 298 2.6 6.1 0.00 0.06 0.00 55 1005.1
20260505112122 69 292 2.6 7.8 0.00 0.06 0.00 55 1005.1
20260505112102 69 304 2.6 7.8 0.00 0.06 0.00 55 1005.1
20260505112022 69 292 2.6 7.8 0.00 0.06 0.00 54 1005.1
20260505111922 69 319 2.6 7.8 0.00 0.06 0.00 54 1005.1
20260505111822 69 319 2.6 7.8 0.00 0.06 0.00 55 1005.1
20260505111720 69 305 2.6 7.8 0.00 0.06 0.00 55 1005.1
20260505111613 69 309 3.5 7.8 0.00 0.06 0.00 55 1005.1
20260505111601 69 309 3.5 7.8 0.00 0.06 0.00 54 1005.1
20260505111513 69 314 3.5 7.8 0.00 0.06 0.00 55 1005.1
20260505111414 69 333 3.5 7.8 0.00 0.06 0.00 55 1005.1
20260505111314 69 342 3.5 7.8 0.00 0.06 0.00 56 1005.1
20260505111213 69 348 3.5 7.8 0.00 0.06 0.00 56 1005.1
20260505111113 69 305 3.5 7.0 0.00 0.06 0.00 57 1005.1
20260505111101 69 308 3.5 7.0 0.00 0.06 0.00 57 1005.1
20260505111014 69 303 3.5 7.0 0.00 0.06 0.00 57 1005.1
20260505110914 69 263 3.5 7.0 0.00 0.06 0.00 57 1005.1
20260505110814 69 264 3.5 7.0 0.00 0.06 0.00 58 1005.1
20260505110714 69 272 3.5 7.0 0.00 0.06 0.00 57 1005.1
20260505110613 69 265 3.5 7.0 0.00 0.06 0.00 57 1005.1
20260505110601 69 278 3.5 7.0 0.00 0.06 0.00 57 1005.1
20260505110513 69 264 3.5 7.0 0.00 0.06 0.00 57 1005.0
20260505110410 69 263 3.5 7.0 0.00 0.06 0.00 60 1005.0
20260505110310 69 260 3.5 7.0 0.00 0.06 0.00 60 1005.1
20260505110210 69 304 3.5 7.0 0.00 0.06 0.00 60 1005.1
20260505110110 69 312 3.5 7.0 0.00 0.06 0.00 60 1005.1
20260505102201 66 148 0.9 2.6 0.00 0.06 0.00 61 1005.3
20260505102101 66 148 0.9 2.6 0.00 0.06 0.00 62 1005.3
20260505102001 66 148 0.9 2.6 0.00 0.06 0.00 58 1005.3
20260505101901 66 148 0.9 4.3 0.00 0.06 0.00 57 1005.2
20260505101825 66 148 0.9 4.3 0.00 0.06 0.00 58 1005.3
20260505101816 66 148 0.9 4.3 0.00 0.06 0.00 56 1005.2
20260505101812 66 148 0.9 4.3 0.00 0.06 0.00 59 1005.2
20260505101500 66 148 0.9 4.3 0.00 0.06 0.00 56 1005.3
20260505101400 66 148 0.9 4.3 0.00 0.06 0.00 56 1005.3
20260505101300 66 148 1.7 4.3 0.00 0.06 0.00 57 1005.3
20260505101200 66 139 1.7 4.3 0.00 0.06 0.00 56 1005.2
20260505101101 66 142 1.7 4.3 0.00 0.06 0.00 57 1005.2
20260505101001 66 143 1.7 4.3 0.00 0.06 0.00 57 1005.2
20260505100902 66 144 1.7 3.5 0.00 0.06 0.00 57 1005.2
20260505100801 66 144 1.7 3.5 0.00 0.06 0.00 57 1005.2
20260505100659 66 144 1.7 3.5 0.00 0.06 0.00 57 1005.2
20260505100603 66 146 1.7 3.5 0.00 0.06 0.00 56 1005.3
20260505100559 66 146 1.7 3.5 0.00 0.06 0.00 56 1005.3
20260505100500 66 147 1.7 3.5 0.00 0.06 0.00 56 1005.3
20260505100400 66 148 1.7 3.5 0.00 0.06 0.00 58 1005.3
20260505100300 66 192 1.7 3.5 0.00 0.06 0.00 61 1005.3
20260505100200 66 192 1.7 3.5 0.00 0.06 0.00 59 1005.4
20260505100059 66 198 2.6 5.2 0.00 0.06 0.00 59 1005.4
20260505095959 66 198 2.6 5.2 0.00 0.06 0.00 58 1005.4
20260505095900 66 200 2.6 5.2 0.00 0.06 0.00 58 1005.4
20260505095800 66 172 2.6 5.2 0.00 0.06 0.00 61 1005.4
20260505095700 66 196 2.6 5.2 0.00 0.06 0.00 60 1005.5
20260505095604 66 147 2.6 5.2 0.00 0.06 0.00 62 1005.5
20260505095600 66 147 2.6 5.2 0.00 0.06 0.00 62 1005.5
20260505095459 66 182 2.6 5.2 0.00 0.06 0.00 61 1005.5
20260505095359 66 182 2.6 5.2 0.00 0.06 0.00 62 1005.5
20260505095259 66 209 2.6 5.2 0.00 0.06 0.00 63 1005.4
20260505095203 66 200 2.6 5.2 0.00 0.06 0.00 63 1005.5
20260505095104 66 194 1.7 5.2 0.00 0.06 0.00 62 1005.5
20260505095100 66 194 1.7 5.2 0.00 0.06 0.00 62 1005.5
20260505095000 66 198 1.7 5.2 0.00 0.06 0.00 61 1005.5
20260505094900 66 194 1.7 5.2 0.00 0.06 0.00 63 1005.5
20260505094755 66 192 1.7 5.2 0.00 0.06 0.00 63 1005.5
20260505094656 65 122 1.7 5.2 0.00 0.06 0.00 64 1005.5
20260505094601 65 122 1.7 5.2 0.00 0.06 0.00 63 1005.5
20260505094555 65 122 1.7 5.2 0.00 0.06 0.00 63 1005.5
20260505094455 65 121 1.7 5.2 0.00 0.06 0.00 65 1005.5
20260505094355 65 118 1.7 5.2 0.00 0.06 0.00 61 1005.5
20260505094255 65 139 0.9 5.2 0.00 0.06 0.00 62 1005.5
20260505094200 65 120 0.9 3.5 0.00 0.06 0.00 63 1005.5
20260505094103 65 192 0.9 3.5 0.00 0.06 0.00 62 1005.5
20260505094056 65 192 0.9 3.5 0.00 0.06 0.00 62 1005.5
20260505093956 65 192 0.9 3.5 0.00 0.06 0.00 61 1005.5
20260505093856 65 142 0.9 3.5 0.00 0.06 0.00 64 1005.5
20260505093755 65 142 0.9 3.5 0.00 0.06 0.00 66 1005.5
20260505093658 65 141 0.9 3.5 0.00 0.06 0.00 65 1005.5
20260505093601 64 144 0.9 3.5 0.00 0.06 0.00 65 1005.5
20260505093553 64 144 0.9 3.5 0.00 0.06 0.00 65 1005.5
20260505093452 64 176 0.9 5.2 0.00 0.06 0.00 66 1005.5
20260505093352 64 196 1.7 5.2 0.00 0.06 0.00 67 1005.5
20260505093252 64 196 1.7 5.2 0.00 0.06 0.00 64 1005.5
20260505093153 64 196 1.7 5.2 0.00 0.06 0.00 65 1005.5
20260505093102 64 196 1.7 5.2 0.00 0.06 0.00 65 1005.5
20260505093047 64 173 0.9 5.2 0.00 0.06 0.00 65 1005.5
20260505092947 64 173 1.7 5.2 0.00 0.06 0.00 67 1005.5
20260505092845 64 173 1.7 5.2 0.00 0.06 0.00 68 1005.5
20260505092744 64 173 1.7 5.2 0.00 0.06 0.00 67 1005.6
20260505092644 64 173 1.7 5.2 0.00 0.06 0.00 65 1005.6
20260505092601 64 173 1.7 5.2 0.00 0.06 0.00 65 1005.6
20260505092541 64 173 1.7 5.2 0.00 0.06 0.00 65 1005.6
20260505092437 64 127 1.7 4.3 0.00 0.06 0.00 66 1005.6
20260505092337 64 121 0.9 4.3 0.00 0.06 0.00 66 1005.7
20260505092237 64 135 0.9 2.6 0.00 0.06 0.00 67 1005.7
20260505092138 63 118 0.9 2.6 0.00 0.06 0.00 69 1005.7
20260505092101 63 151 0.9 2.6 0.00 0.06 0.00 69 1005.7
20260505092038 63 151 0.9 2.6 0.00 0.06 0.00 68 1005.7
20260505091938 63 151 0.9 2.6 0.00 0.06 0.00 68 1005.8
20260505091837 63 151 0.9 2.6 0.00 0.06 0.00 68 1005.8
20260505091735 63 151 0.9 2.6 0.00 0.06 0.00 66 1005.8
20260505091635 63 151 0.9 2.6 0.00 0.06 0.00 69 1005.8
20260505091600 63 151 0.9 2.6 0.00 0.06 0.00 69 1005.8
20260505091535 63 151 0.9 2.6 0.00 0.06 0.00 68 1005.8
20260505091436 63 151 0.9 2.6 0.00 0.06 0.00 67 1005.8
20260505091333 63 168 0.9 1.7 0.00 0.06 0.00 69 1005.8
20260505091233 63 168 0.9 1.7 0.00 0.06 0.00 69 1005.9
20260505091134 63 169 0.9 1.7 0.00 0.06 0.00 68 1005.8
20260505091100 63 169 0.9 1.7 0.00 0.06 0.00 68 1005.8
20260505091029 63 169 0.9 1.7 0.00 0.06 0.00 68 1005.8
20260505090929 63 169 0.9 1.7 0.00 0.06 0.00 69 1005.8
20260505090829 63 169 0.9 1.7 0.00 0.06 0.00 69 1005.8
20260505090729 63 169 0.9 1.7 0.00 0.06 0.00 68 1005.8
20260505090629 63 169 0.9 1.7 0.00 0.06 0.00 68 1005.9
20260505090601 63 169 0.9 1.7 0.00 0.06 0.00 69 1005.9
20260505090529 63 169 0.9 1.7 0.00 0.06 0.00 70 1005.9
20260505090430 63 169 0.9 3.5 0.00 0.06 0.00 69 1005.9
20260505090335 63 169 0.9 3.5 0.00 0.06 0.00 70 1005.9
20260505090229 62 169 0.9 3.5 0.00 0.06 0.00 70 1005.9
20260505090128 63 169 0.9 3.5 0.00 0.06 0.00 69 1006.0
20260505090101 62 169 0.9 3.5 0.00 0.06 0.00 69 1006.0
20260505090029 62 169 0.9 3.5 0.00 0.06 0.00 69 1006.0
20260505085930 62 169 0.9 3.5 0.00 0.06 0.00 70 1005.9
20260505085829 63 169 0.9 3.5 0.00 0.06 0.00 70 1006.0
20260505085729 62 169 0.9 3.5 0.00 0.06 0.00 69 1006.0
20260505085629 62 169 0.9 3.5 0.00 0.06 0.00 72 1006.0
20260505085601 62 169 0.9 3.5 0.00 0.06 0.00 71 1006.0
20260505085529 62 169 0.9 3.5 0.00 0.06 0.00 71 1006.0
20260505085429 62 128 0.9 2.6 0.00 0.06 0.00 71 1006.0
20260505085328 62 104 0.9 3.5 0.00 0.06 0.00 73 1006.0
20260505085228 62 101 0.9 3.5 0.00 0.06 0.00 73 1006.0
20260505085128 62 101 0.9 3.5 0.00 0.06 0.00 73 1006.0
20260505085101 62 101 0.9 3.5 0.00 0.06 0.00 74 1006.0
20260505085029 62 101 0.9 3.5 0.00 0.06 0.00 74 1006.0
20260505084929 62 96 0.9 3.5 0.00 0.06 0.00 74 1006.0
20260505084829 62 95 0.9 3.5 0.00 0.06 0.00 72 1006.0
20260505084729 62 86 0.9 3.5 0.00 0.06 0.00 74 1006.0
20260505084628 62 86 0.9 3.5 0.00 0.06 0.00 74 1006.0
20260505084601 62 85 0.9 3.5 0.00 0.06 0.00 74 1006.0
20260505084528 61 73 0.9 3.5 0.00 0.06 0.00 74 1006.0
20260505084428 61 72 0.9 3.5 0.00 0.06 0.00 75 1006.0
20260505084329 61 126 0.9 3.5 0.00 0.06 0.00 75 1006.1
20260505084229 61 126 0.9 3.5 0.00 0.06 0.00 74 1006.1
20260505084134 61 126 0.9 3.5 0.00 0.06 0.00 76 1006.1
20260505084101 61 126 0.9 3.5 0.00 0.06 0.00 76 1006.1
20260505084027 61 126 0.9 5.2 0.00 0.06 0.00 76 1006.2
20260505083927 61 126 1.7 5.2 0.00 0.06 0.00 74 1006.2
20260505083825 61 126 1.7 5.2 0.00 0.06 0.00 73 1006.2
20260505083723 61 126 1.7 5.2 0.00 0.06 0.00 74 1006.2
20260505083623 61 128 0.9 5.2 0.00 0.06 0.00 74 1006.2
20260505083601 61 127 0.9 5.2 0.00 0.06 0.00 74 1006.2
20260505083521 61 126 0.9 5.2 0.00 0.06 0.00 76 1006.2
20260505083419 61 126 0.9 5.2 0.00 0.06 0.00 76 1006.2
20260505083331 61 126 1.7 5.2 0.00 0.06 0.00 76 1006.2
20260505083325 61 126 0.9 5.2 0.00 0.06 0.00 75 1006.3
20260505083321 61 126 1.7 5.2 0.00 0.06 0.00 75 1006.3
20260505083313 61 127 1.7 5.2 0.00 0.06 0.00 76 1006.2
20260505083011 61 126 0.9 4.3 0.00 0.06 0.00 77 1006.2
20260505082911 60 103 0.9 3.5 0.00 0.06 0.00 77 1006.2
20260505082826 60 102 0.9 3.5 0.00 0.06 0.00 76 1006.2
20260505082822 60 93 0.9 3.5 0.00 0.06 0.00 78 1006.2
20260505082813 60 114 1.7 3.5 0.00 0.06 0.00 77 1006.2
20260505082507 60 114 1.7 3.5 0.00 0.06 0.00 78 1006.2
20260505082407 60 115 1.7 3.5 0.00 0.06 0.00 77 1006.2
20260505082307 60 115 1.7 3.5 0.00 0.06 0.00 77 1006.2
20260505082207 60 122 1.7 3.5 0.00 0.06 0.00 77 1006.3
20260505082108 59 123 1.7 3.5 0.00 0.06 0.00 77 1006.2
20260505082100 59 123 1.7 3.5 0.00 0.06 0.00 78 1006.2
20260505082007 59 122 1.7 3.5 0.00 0.06 0.00 78 1006.2
20260505081907 59 122 1.7 3.5 0.00 0.06 0.00 78 1006.2
20260505081805 59 121 1.7 3.5 0.00 0.06 0.00 78 1006.2
20260505081705 59 81 0.9 2.6 0.00 0.06 0.00 78 1006.2
20260505081605 59 46 0.9 2.6 0.00 0.06 0.00 79 1006.2
20260505081601 59 37 0.9 2.6 0.00 0.06 0.00 78 1006.2
20260505081505 59 336 0.9 2.6 0.00 0.06 0.00 79 1006.2
20260505081406 59 337 0.9 2.6 0.00 0.06 0.00 79 1006.3
20260505081325 58 337 0.9 2.6 0.00 0.06 0.00 79 1006.2
20260505081321 58 337 0.9 2.6 0.00 0.06 0.00 79 1006.3
20260505081312 58 338 0.9 2.6 0.00 0.06 0.00 80 1006.3
20260505081002 58 338 0.9 2.6 0.00 0.06 0.00 80 1006.3
20260505080901 58 338 0.9 2.6 0.00 0.06 0.00 80 1006.3
20260505080826 58 340 0.9 2.6 0.00 0.06 0.00 79 1006.3
20260505080822 58 340 0.9 2.6 0.00 0.06 0.00 79 1006.3
20260505080813 58 340 0.9 2.6 0.00 0.06 0.00 80 1006.3
20260505080501 58 337 0.9 2.6 0.00 0.06 0.00 80 1006.3
20260505080401 58 337 0.9 2.6 0.00 0.06 0.00 80 1006.4
20260505080301 58 337 0.9 2.6 0.00 0.06 0.00 80 1006.3
20260505080201 58 336 0.9 2.6 0.00 0.06 0.00 80 1006.4
20260505080001 58 336 0.9 2.6 0.00 0.06 0.00 81 1006.4
20260505075901 57 336 0.9 2.6 0.00 0.06 0.00 80 1006.4
20260505075824 57 336 0.9 2.6 0.00 0.06 0.00 81 1006.4
20260505075820 57 340 0.9 1.7 0.00 0.06 0.00 81 1006.4
20260505075811 57 340 0.9 1.7 0.00 0.06 0.00 81 1006.4
20260505075500 57 340 0.0 1.7 0.00 0.06 0.00 80 1006.4
20260505075400 57 340 0.0 1.7 0.00 0.06 0.00 79 1006.4
20260505075325 57 340 0.0 1.7 0.00 0.06 0.00 80 1006.4
20260505075320 57 340 0.9 2.6 0.00 0.06 0.00 81 1006.4
20260505075312 57 340 0.9 2.6 0.00 0.06 0.00 82 1006.3
20260505075000 57 339 0.0 2.6 0.00 0.06 0.00 84 1006.3
20260505074900 57 339 0.9 2.6 0.00 0.06 0.00 83 1006.3
20260505074800 57 339 0.9 2.6 0.00 0.06 0.00 83 1006.3
20260505074700 57 339 0.9 2.6 0.00 0.06 0.00 83 1006.3
20260505074601 57 339 0.9 2.6 0.00 0.06 0.00 83 1006.3
20260505074501 57 338 0.9 2.6 0.00 0.06 0.00 83 1006.3
20260505074401 57 338 0.9 2.6 0.00 0.06 0.00 83 1006.4
20260505074301 56 338 0.9 2.6 0.00 0.06 0.00 84 1006.4
20260505074201 56 338 0.9 2.6 0.00 0.06 0.00 84 1006.4
20260505074101 56 338 0.9 2.6 0.00 0.06 0.00 84 1006.4
20260505074001 56 338 0.9 2.6 0.00 0.06 0.00 84 1006.5
20260505073901 56 338 0.9 2.6 0.00 0.06 0.00 84 1006.5
20260505073825 56 338 0.9 2.6 0.00 0.06 0.00 84 1006.4
20260505073821 56 338 0.9 2.6 0.00 0.06 0.00 84 1006.4
20260505073813 56 338 0.9 3.5 0.00 0.06 0.00 84 1006.4
20260505073501 56 338 1.7 3.5 0.00 0.06 0.00 84 1006.5
20260505073401 56 338 0.9 3.5 0.00 0.06 0.00 85 1006.4
20260505073301 56 338 0.9 3.5 0.00 0.06 0.00 86 1006.5
20260505073201 56 338 0.9 3.5 0.00 0.06 0.00 85 1006.5
20260505073106 56 338 0.9 3.5 0.00 0.06 0.00 85 1006.5
20260505073000 56 338 0.9 3.5 0.00 0.06 0.00 85 1006.5
20260505072900 55 338 1.7 3.5 0.00 0.06 0.00 86 1006.5
20260505072801 55 338 1.7 3.5 0.00 0.06 0.00 86 1006.5
20260505072701 55 338 1.7 3.5 0.00 0.06 0.00 86 1006.7
20260505072604 55 338 1.7 3.5 0.00 0.06 0.00 86 1006.7
20260505072501 55 55 0.9 2.6 0.00 0.06 0.00 86 1006.7
20260505072401 55 202 0.9 2.6 0.00 0.06 0.00 86 1006.7
20260505072320 55 203 0.9 2.6 0.00 0.06 0.00 86 1006.7
20260505072316 55 204 1.7 2.6 0.00 0.06 0.00 86 1006.8
20260505072312 55 204 1.7 2.6 0.00 0.06 0.00 86 1006.8
20260505072000 55 204 1.7 2.6 0.00 0.06 0.00 86 1006.8